Wetterdaten: Donnerstag, 12.11.2020
Datum Zeit Temp. Aussen Temp. o. S. Temp +5cm Feuchte Auss Luftdruck Regen Sonnenschein Regendauer Solar Windben Empfang
12.11.2020 00:00 9,3 C 8,9 C 8,4 C 97 % 1019,5 hPa 0,0 l/m 0 min 0 min 0 W/m 16,1 km/h (3 Bft) 95,65 %
12.11.2020 00:02 9,2 C 8,3 C 8,4 C 97 % 1019,4 hPa 0,0 l/m 0 min 0 min 0 W/m 6,4 km/h (2 Bft) 95,00 %
12.11.2020 00:04 9,2 C 8,3 C 8,4 C 97 % 1019,3 hPa 0,0 l/m 0 min 0 min 0 W/m 12,9 km/h (3 Bft) 95,74 %
12.11.2020 00:08 9,1 C 8,3 C 8,4 C 97 % 1019,2 hPa 0,0 l/m 0 min 0 min 0 W/m 16,1 km/h (3 Bft) 93,68 %
12.11.2020 00:10 9,1 C 8,3 C 8,4 C 97 % 1019,1 hPa 0,0 l/m 0 min 0 min 0 W/m 12,9 km/h (3 Bft) 91,49 %
12.11.2020 00:12 9,1 C 8,3 C 8,4 C 97 % 1019,1 hPa 0,0 l/m 0 min 0 min 0 W/m 6,4 km/h (2 Bft) 91,30 %
12.11.2020 00:14 9,1 C 8,3 C 8,4 C 97 % 1019,1 hPa 0,0 l/m 0 min 0 min 0 W/m 12,9 km/h (3 Bft) 91,49 %
12.11.2020 00:16 9,1 C 8,3 C 8,4 C 97 % 1019,2 hPa 0,0 l/m 0 min 0 min 0 W/m 6,4 km/h (2 Bft) 91,49 %
12.11.2020 00:18 9,1 C 8,3 C 8,4 C 97 % 1019,1 hPa 0,0 l/m 0 min 0 min 0 W/m 9,7 km/h (2 Bft) 91,49 %
12.11.2020 00:20 9,1 C 8,3 C 8,4 C 97 % 1019,1 hPa 0,0 l/m 0 min 0 min 0 W/m 19,3 km/h (3 Bft) 95,83 %
12.11.2020 00:22 9,1 C 8,3 C 8,4 C 97 % 1019,1 hPa 0,0 l/m 0 min 0 min 0 W/m 9,7 km/h (2 Bft) 95,74 %
12.11.2020 00:24 9,0 C 8,3 C 8,4 C 97 % 1019,1 hPa 0,0 l/m 0 min 0 min 0 W/m 12,9 km/h (3 Bft) 95,74 %
12.11.2020 00:26 9,0 C 8,3 C 8,4 C 97 % 1019,1 hPa 0,0 l/m 0 min 0 min 0 W/m 16,1 km/h (3 Bft) 91,84 %
12.11.2020 00:28 9,0 C 8,3 C 8,4 C 97 % 1019,1 hPa 0,0 l/m 0 min 0 min 0 W/m 16,1 km/h (3 Bft) 97,96 %
12.11.2020 00:30 9,0 C 8,3 C 8,4 C 97 % 1019,1 hPa 0,0 l/m 0 min 0 min 0 W/m 12,9 km/h (3 Bft) 97,22 %
12.11.2020 00:32 9,0 C 8,3 C 8,4 C 97 % 1019,1 hPa 0,0 l/m 0 min 0 min 0 W/m 6,4 km/h (2 Bft) 100,00 %
12.11.2020 00:34 9,0 C 8,3 C 8,4 C 97 % 1019,1 hPa 0,0 l/m 0 min 0 min 0 W/m 16,1 km/h (3 Bft) 96,55 %
12.11.2020 00:36 9,0 C 8,3 C 8,4 C 97 % 1019,1 hPa 0,0 l/m 0 min 0 min 0 W/m 12,9 km/h (3 Bft) 93,62 %
12.11.2020 00:38 9,0 C 8,3 C 8,4 C 97 % 1019,1 hPa 0,0 l/m 0 min 0 min 0 W/m 12,9 km/h (3 Bft) 97,87 %
12.11.2020 00:40 9,0 C 8,3 C 8,4 C 97 % 1019,0 hPa 0,0 l/m 0 min 0 min 0 W/m 12,9 km/h (3 Bft) 97,87 %
12.11.2020 00:42 9,0 C 8,3 C 8,4 C 97 % 1019,0 hPa 0,0 l/m 0 min 0 min 0 W/m 6,4 km/h (2 Bft) 97,73 %
12.11.2020 00:44 9,0 C 8,3 C 8,4 C 97 % 1019,0 hPa 0,0 l/m 0 min 0 min 0 W/m 22,5 km/h (4 Bft) 97,96 %
12.11.2020 00:46 9,0 C 8,3 C 8,4 C 97 % 1018,9 hPa 0,0 l/m 0 min 0 min 0 W/m 12,9 km/h (3 Bft) 95,65 %
12.11.2020 00:48 9,0 C 8,3 C 8,4 C 97 % 1018,9 hPa 0,0 l/m 0 min 0 min 0 W/m 6,4 km/h (2 Bft) 97,87 %
12.11.2020 00:50 9,0 C 8,3 C 8,4 C 97 % 1018,9 hPa 0,0 l/m 0 min 0 min 0 W/m 9,7 km/h (2 Bft) 97,87 %
12.11.2020 00:52 9,0 C 8,3 C 8,4 C 97 % 1018,8 hPa 0,0 l/m 0 min 0 min 0 W/m 6,4 km/h (2 Bft) 97,87 %
12.11.2020 00:54 8,9 C 8,3 C 8,4 C 97 % 1018,9 hPa 0,0 l/m 0 min 0 min 0 W/m 12,9 km/h (3 Bft) 97,87 %
12.11.2020 00:56 8,9 C 8,3 C 8,4 C 97 % 1018,9 hPa 0,0 l/m 0 min 0 min 0 W/m 19,3 km/h (3 Bft) 97,87 %
12.11.2020 00:58 8,9 C 8,3 C 8,4 C 97 % 1018,9 hPa 0,0 l/m 0 min 0 min 0 W/m 22,5 km/h (4 Bft) 100,00 %
12.11.2020 01:00 8,9 C 8,3 C 8,4 C 97 % 1019,0 hPa 0,0 l/m 0 min 0 min 0 W/m 19,3 km/h (3 Bft) 68,09 %
12.11.2020 01:02 8,9 C 8,3 C 8,4 C 97 % 1018,9 hPa 0,0 l/m 0 min 0 min 0 W/m 12,9 km/h (3 Bft) 89,13 %
12.11.2020 01:04 8,9 C 8,3 C 8,4 C 97 % 1018,9 hPa 0,0 l/m 0 min 0 min 0 W/m 12,9 km/h (3 Bft) 100,00 %
12.11.2020 01:06 8,9 C 8,3 C 8,4 C 97 % 1018,9 hPa 0,0 l/m 0 min 0 min 0 W/m 6,4 km/h (2 Bft) 100,00 %
12.11.2020 01:08 8,9 C 8,3 C 8,4 C 97 % 1018,9 hPa 0,0 l/m 0 min 0 min 0 W/m 9,7 km/h (2 Bft) 100,00 %
12.11.2020 01:10 8,9 C 8,3 C 8,4 C 97 % 1018,9 hPa 0,0 l/m 0 min 0 min 0 W/m 16,1 km/h (3 Bft) 97,83 %
12.11.2020 01:12 8,9 C 8,3 C 8,4 C 97 % 1018,8 hPa 0,0 l/m 0 min 0 min 0 W/m 9,7 km/h (2 Bft) 97,87 %
12.11.2020 01:14 8,9 C 8,3 C 8,4 C 97 % 1018,8 hPa 0,0 l/m 0 min 0 min 0 W/m 25,7 km/h (4 Bft) 100,00 %
12.11.2020 01:16 8,9 C 8,3 C 8,4 C 97 % 1018,8 hPa 0,0 l/m 0 min 0 min 0 W/m 22,5 km/h (4 Bft) 100,00 %
12.11.2020 01:18 8,9 C 8,3 C 8,4 C 97 % 1018,8 hPa 0,0 l/m 0 min 0 min 0 W/m 6,4 km/h (2 Bft) 100,00 %
12.11.2020 01:20 8,9 C 8,3 C 8,4 C 97 % 1018,8 hPa 0,0 l/m 0 min 0 min 0 W/m 16,1 km/h (3 Bft) 97,87 %
12.11.2020 01:22 8,9 C 8,3 C 8,4 C 97 % 1018,8 hPa 0,0 l/m 0 min 0 min 0 W/m 6,4 km/h (2 Bft) 100,00 %
12.11.2020 01:24 8,9 C 8,3 C 8,4 C 97 % 1018,8 hPa 0,0 l/m 0 min 0 min 0 W/m 19,3 km/h (3 Bft) 100,00 %
12.11.2020 01:26 8,9 C 8,3 C 8,4 C 97 % 1018,7 hPa 0,0 l/m 0 min 0 min 0 W/m 16,1 km/h (3 Bft) 100,00 %
12.11.2020 01:28 8,9 C 8,3 C 8,4 C 97 % 1018,7 hPa 0,0 l/m 0 min 0 min 0 W/m 16,1 km/h (3 Bft) 100,00 %
12.11.2020 01:30 8,9 C 8,3 C 8,4 C 97 % 1018,6 hPa 0,0 l/m 0 min 0 min 0 W/m 12,9 km/h (3 Bft) 100,00 %
12.11.2020 01:32 8,9 C 8,3 C 8,4 C 97 % 1018,5 hPa 0,0 l/m 0 min 0 min 0 W/m 6,4 km/h (2 Bft) 100,00 %
12.11.2020 01:34 8,9 C 8,3 C 8,4 C 97 % 1018,5 hPa 0,0 l/m 0 min 0 min 0 W/m 12,9 km/h (3 Bft) 100,00 %
12.11.2020 01:36 8,9 C 8,3 C 8,4 C 97 % 1018,6 hPa 0,0 l/m 0 min 0 min 0 W/m 12,9 km/h (3 Bft) 100,00 %
12.11.2020 01:38 8,9 C 8,3 C 8,4 C 97 % 1018,5 hPa 0,0 l/m 0 min 0 min 0 W/m 9,7 km/h (2 Bft) 97,87 %
12.11.2020 01:40 8,8 C 8,3 C 8,4 C 97 % 1018,5 hPa 0,0 l/m 0 min 0 min 0 W/m 6,4 km/h (2 Bft) 100,00 %
12.11.2020 01:42 8,8 C 8,3 C 8,4 C 97 % 1018,5 hPa 0,0 l/m 0 min 0 min 0 W/m 19,3 km/h (3 Bft) 97,87 %
12.11.2020 01:44 8,8 C 8,3 C 8,4 C 97 % 1018,6 hPa 0,0 l/m 0 min 0 min 0 W/m 9,7 km/h (2 Bft) 100,00 %
12.11.2020 01:46 8,8 C 8,3 C 8,4 C 97 % 1018,6 hPa 0,0 l/m 0 min 0 min 0 W/m 6,4 km/h (2 Bft) 100,00 %
12.11.2020 01:48 8,8 C 8,3 C 8,4 C 97 % 1018,4 hPa 0,0 l/m 0 min 0 min 0 W/m 12,9 km/h (3 Bft) 100,00 %
12.11.2020 01:50 8,8 C 8,3 C 8,4 C 97 % 1018,4 hPa 0,0 l/m 0 min 0 min 0 W/m 9,7 km/h (2 Bft) 100,00 %
12.11.2020 01:52 8,8 C 8,3 C 8,4 C 97 % 1018,4 hPa 0,0 l/m 0 min 0 min 0 W/m 9,7 km/h (2 Bft) 100,00 %
12.11.2020 01:54 8,8 C 8,3 C 8,4 C 97 % 1018,3 hPa 0,0 l/m 0 min 0 min 0 W/m 12,9 km/h (3 Bft) 97,87 %
12.11.2020 01:56 8,8 C 8,3 C 8,4 C 97 % 1018,4 hPa 0,0 l/m 0 min 0 min 0 W/m 19,3 km/h (3 Bft) 100,00 %
12.11.2020 01:58 8,8 C 8,3 C 8,4 C 97 % 1018,3 hPa 0,0 l/m 0 min 0 min 0 W/m 12,9 km/h (3 Bft) 100,00 %
12.11.2020 02:00 8,8 C 8,3 C 8,4 C 97 % 1018,3 hPa 0,0 l/m 0 min 0 min 0 W/m 6,4 km/h (2 Bft) 97,87 %
12.11.2020 02:02 8,8 C 8,3 C 7,8 C 97 % 1018,3 hPa 0,0 l/m 0 min 0 min 0 W/m 22,5 km/h (4 Bft) 100,00 %
12.11.2020 02:04 8,8 C 8,3 C 7,8 C 97 % 1018,3 hPa 0,0 l/m 0 min 0 min 0 W/m 6,4 km/h (2 Bft) 97,87 %
12.11.2020 02:06 8,8 C 8,3 C 7,8 C 97 % 1018,3 hPa 0,0 l/m 0 min 0 min 0 W/m 16,1 km/h (3 Bft) 100,00 %
12.11.2020 02:08 8,7 C 8,3 C 7,8 C 96 % 1018,2 hPa 0,0 l/m 0 min 0 min 0 W/m 12,9 km/h (3 Bft) 97,83 %
12.11.2020 02:10 8,7 C 8,3 C 7,8 C 96 % 1018,2 hPa 0,0 l/m 0 min 0 min 0 W/m 12,9 km/h (3 Bft) 100,00 %
12.11.2020 02:12 8,7 C 8,3 C 7,8 C 96 % 1018,2 hPa 0,0 l/m 0 min 0 min 0 W/m 12,9 km/h (3 Bft) 100,00 %
12.11.2020 02:14 8,7 C 8,3 C 7,8 C 96 % 1018,2 hPa 0,0 l/m 0 min 0 min 0 W/m 9,7 km/h (2 Bft) 97,87 %
12.11.2020 02:16 8,7 C 8,3 C 7,8 C 96 % 1018,2 hPa 0,0 l/m 0 min 0 min 0 W/m 6,4 km/h (2 Bft) 100,00 %
12.11.2020 02:18 8,7 C 8,3 C 7,8 C 96 % 1018,2 hPa 0,0 l/m 0 min 0 min 0 W/m 12,9 km/h (3 Bft) 100,00 %
12.11.2020 02:20 8,7 C 8,3 C 7,8 C 96 % 1018,2 hPa 0,0 l/m 0 min 0 min 0 W/m 16,1 km/h (3 Bft) 100,00 %
12.11.2020 02:22 8,7 C 8,3 C 7,8 C 96 % 1018,3 hPa 0,0 l/m 0 min 0 min 0 W/m 6,4 km/h (2 Bft) 100,00 %
12.11.2020 02:24 8,7 C 8,3 C 7,8 C 96 % 1018,3 hPa 0,0 l/m 0 min 0 min 0 W/m 19,3 km/h (3 Bft) 100,00 %
12.11.2020 02:26 8,7 C 8,3 C 7,8 C 96 % 1018,3 hPa 0,0 l/m 0 min 0 min 0 W/m 16,1 km/h (3 Bft) 100,00 %
12.11.2020 02:28 8,7 C 8,3 C 7,8 C 96 % 1018,2 hPa 0,0 l/m 0 min 0 min 0 W/m 16,1 km/h (3 Bft) 97,87 %
12.11.2020 02:30 8,7 C 8,3 C 7,8 C 96 % 1018,2 hPa 0,0 l/m 0 min 0 min 0 W/m 12,9 km/h (3 Bft) 95,65 %
12.11.2020 02:32 8,7 C 8,3 C 7,8 C 96 % 1018,1 hPa 0,0 l/m 0 min 0 min 0 W/m 19,3 km/h (3 Bft) 95,74 %
12.11.2020 02:34 8,7 C 8,3 C 7,8 C 96 % 1018,1 hPa 0,0 l/m 0 min 0 min 0 W/m 12,9 km/h (3 Bft) 95,74 %
12.11.2020 02:36 8,7 C 8,3 C 7,8 C 96 % 1018,1 hPa 0,0 l/m 0 min 0 min 0 W/m 12,9 km/h (3 Bft) 97,87 %
12.11.2020 02:38 8,7 C 8,3 C 7,8 C 96 % 1018,1 hPa 0,0 l/m 0 min 0 min 0 W/m 16,1 km/h (3 Bft) 95,74 %
12.11.2020 02:40 8,7 C 8,3 C 7,8 C 96 % 1018,0 hPa 0,0 l/m 0 min 0 min 0 W/m 9,7 km/h (2 Bft) 97,87 %
12.11.2020 02:42 8,7 C 8,3 C 7,8 C 96 % 1018,0 hPa 0,0 l/m 0 min 0 min 0 W/m 6,4 km/h (2 Bft) 95,65 %
12.11.2020 02:44 8,7 C 8,3 C 7,8 C 96 % 1018,0 hPa 0,0 l/m 0 min 0 min 0 W/m 19,3 km/h (3 Bft) 97,87 %
12.11.2020 02:46 8,7 C 8,3 C 7,8 C 96 % 1018,0 hPa 0,0 l/m 0 min 0 min 0 W/m 19,3 km/h (3 Bft) 97,87 %
12.11.2020 02:48 8,7 C 8,3 C 7,8 C 96 % 1018,0 hPa 0,0 l/m 0 min 0 min 0 W/m 12,9 km/h (3 Bft) 95,74 %
12.11.2020 02:50 8,7 C 8,3 C 7,8 C 96 % 1018,0 hPa 0,0 l/m 0 min 0 min 0 W/m 9,7 km/h (2 Bft) 95,74 %
12.11.2020 02:52 8,7 C 8,3 C 7,8 C 96 % 1017,9 hPa 0,0 l/m 0 min 0 min 0 W/m 12,9 km/h (3 Bft) 95,74 %
12.11.2020 02:54 8,7 C 8,3 C 7,8 C 96 % 1017,9 hPa 0,0 l/m 0 min 0 min 0 W/m 12,9 km/h (3 Bft) 95,65 %
12.11.2020 02:56 8,7 C 8,3 C 7,8 C 96 % 1017,9 hPa 0,0 l/m 0 min 0 min 0 W/m 12,9 km/h (3 Bft) 89,36 %
12.11.2020 02:58 8,7 C 8,3 C 7,8 C 96 % 1017,9 hPa 0,0 l/m 0 min 0 min 0 W/m 12,9 km/h (3 Bft) 95,74 %
12.11.2020 03:00 8,7 C 8,3 C 7,8 C 96 % 1017,8 hPa 0,0 l/m 0 min 0 min 0 W/m 22,5 km/h (4 Bft) 95,74 %
12.11.2020 03:02 8,7 C 8,3 C 7,8 C 96 % 1017,7 hPa 0,0 l/m 0 min 0 min 0 W/m 9,7 km/h (2 Bft) 93,62 %
12.11.2020 03:04 8,7 C 8,3 C 7,8 C 96 % 1017,8 hPa 0,0 l/m 0 min 0 min 0 W/m 16,1 km/h (3 Bft) 95,65 %
12.11.2020 03:06 8,7 C 8,3 C 7,8 C 96 % 1017,7 hPa 0,0 l/m 0 min 0 min 0 W/m 9,7 km/h (2 Bft) 95,74 %
12.11.2020 03:08 8,7 C 8,3 C 7,8 C 96 % 1017,8 hPa 0,0 l/m 0 min 0 min 0 W/m 12,9 km/h (3 Bft) 95,74 %
12.11.2020 03:10 8,7 C 8,3 C 7,8 C 96 % 1017,7 hPa 0,0 l/m 0 min 0 min 0 W/m 16,1 km/h (3 Bft) 95,74 %
12.11.2020 03:12 8,7 C 8,3 C 8,4 C 96 % 1017,7 hPa 0,0 l/m 0 min 0 min 0 W/m 22,5 km/h (4 Bft) 91,49 %
12.11.2020 03:14 8,7 C 8,3 C 8,4 C 96 % 1017,7 hPa 0,0 l/m 0 min 0 min 0 W/m 16,1 km/h (3 Bft) 97,87 %
12.11.2020 03:16 8,7 C 8,3 C 8,4 C 96 % 1017,6 hPa 0,0 l/m 0 min 0 min 0 W/m 16,1 km/h (3 Bft) 97,83 %
12.11.2020 03:18 8,7 C 8,3 C 7,8 C 96 % 1017,6 hPa 0,0 l/m 0 min 0 min 0 W/m 9,7 km/h (2 Bft) 97,87 %
12.11.2020 03:20 8,7 C 8,3 C 7,8 C 96 % 1017,6 hPa 0,0 l/m 0 min 0 min 0 W/m 16,1 km/h (3 Bft) 97,87 %
12.11.2020 03:22 8,7 C 8,3 C 7,8 C 96 % 1017,6 hPa 0,0 l/m 0 min 0 min 0 W/m 12,9 km/h (3 Bft) 97,87 %
12.11.2020 03:24 8,7 C 8,3 C 7,8 C 96 % 1017,6 hPa 0,0 l/m 0 min 0 min 0 W/m 12,9 km/h (3 Bft) 97,87 %
12.11.2020 03:26 8,7 C 8,3 C 7,8 C 96 % 1017,6 hPa 0,0 l/m 0 min 0 min 0 W/m 3,2 km/h (1 Bft) 97,87 %
12.11.2020 03:28 8,7 C 8,3 C 7,8 C 96 % 1017,4 hPa 0,0 l/m 0 min 0 min 0 W/m 12,9 km/h (3 Bft) 97,83 %
12.11.2020 03:30 8,7 C 8,3 C 7,8 C 96 % 1017,3 hPa 0,0 l/m 0 min 0 min 0 W/m 6,4 km/h (2 Bft) 97,87 %
12.11.2020 03:32 8,7 C 8,3 C 7,8 C 96 % 1017,2 hPa 0,0 l/m 0 min 0 min 0 W/m 6,4 km/h (2 Bft) 98,11 %
12.11.2020 03:34 8,7 C 8,3 C 7,8 C 96 % 1017,2 hPa 0,0 l/m 0 min 0 min 0 W/m 12,9 km/h (3 Bft) 97,87 %
12.11.2020 03:36 8,7 C 8,3 C 7,8 C 96 % 1017,4 hPa 0,0 l/m 0 min 0 min 0 W/m 19,3 km/h (3 Bft) 97,87 %
12.11.2020 03:38 8,7 C 8,3 C 7,8 C 96 % 1017,4 hPa 0,0 l/m 0 min 0 min 0 W/m 16,1 km/h (3 Bft) 100,00 %
12.11.2020 03:40 8,7 C 8,3 C 7,8 C 96 % 1017,4 hPa 0,0 l/m 0 min 0 min 0 W/m 12,9 km/h (3 Bft) 100,00 %
12.11.2020 03:42 8,7 C 8,3 C 7,8 C 96 % 1017,3 hPa 0,0 l/m 0 min 0 min 0 W/m 12,9 km/h (3 Bft) 100,00 %
12.11.2020 03:44 8,7 C 8,3 C 7,8 C 96 % 1017,4 hPa 0,0 l/m 0 min 0 min 0 W/m 16,1 km/h (3 Bft) 100,00 %
12.11.2020 03:46 8,7 C 8,3 C 7,8 C 96 % 1017,3 hPa 0,0 l/m 0 min 0 min 0 W/m 19,3 km/h (3 Bft) 97,87 %
12.11.2020 03:48 8,7 C 8,3 C 7,8 C 96 % 1017,2 hPa 0,0 l/m 0 min 0 min 0 W/m 12,9 km/h (3 Bft) 97,87 %
12.11.2020 03:50 8,7 C 8,3 C 7,8 C 96 % 1017,1 hPa 0,0 l/m 0 min 0 min 0 W/m 12,9 km/h (3 Bft) 100,00 %
12.11.2020 03:52 8,7 C 8,3 C 7,8 C 96 % 1017,0 hPa 0,0 l/m 0 min 0 min 0 W/m 12,9 km/h (3 Bft) 100,00 %
12.11.2020 03:54 8,7 C 8,3 C 7,8 C 96 % 1017,0 hPa 0,0 l/m 0 min 0 min 0 W/m 9,7 km/h (2 Bft) 100,00 %
12.11.2020 03:56 8,7 C 8,3 C 8,4 C 96 % 1017,1 hPa 0,0 l/m 0 min 0 min 0 W/m 6,4 km/h (2 Bft) 100,00 %
12.11.2020 03:58 8,7 C 8,3 C 7,8 C 96 % 1017,0 hPa 0,0 l/m 0 min 0 min 0 W/m 22,5 km/h (4 Bft) 100,00 %
12.11.2020 04:00 8,7 C 8,3 C 7,8 C 96 % 1017,0 hPa 0,0 l/m 0 min 0 min 0 W/m 9,7 km/h (2 Bft) 100,00 %
12.11.2020 04:02 8,7 C 8,3 C 7,8 C 96 % 1016,9 hPa 0,0 l/m 0 min 0 min 0 W/m 9,7 km/h (2 Bft) 100,00 %
12.11.2020 04:04 8,7 C 8,3 C 7,8 C 96 % 1017,0 hPa 0,0 l/m 0 min 0 min 0 W/m 6,4 km/h (2 Bft) 100,00 %
12.11.2020 04:06 8,7 C 8,3 C 7,8 C 96 % 1016,9 hPa 0,0 l/m 0 min 0 min 0 W/m 6,4 km/h (2 Bft) 95,74 %
12.11.2020 04:08 8,7 C 8,3 C 7,8 C 96 % 1016,9 hPa 0,0 l/m 0 min 0 min 0 W/m 6,4 km/h (2 Bft) 100,00 %
12.11.2020 04:10 8,7 C 8,3 C 7,8 C 96 % 1016,9 hPa 0,0 l/m 0 min 0 min 0 W/m 19,3 km/h (3 Bft) 100,00 %
12.11.2020 04:12 8,7 C 8,3 C 7,8 C 96 % 1016,9 hPa 0,0 l/m 0 min 0 min 0 W/m 19,3 km/h (3 Bft) 97,87 %
12.11.2020 04:14 8,7 C 8,3 C 7,8 C 96 % 1016,8 hPa 0,0 l/m 0 min 0 min 0 W/m 6,4 km/h (2 Bft) 97,83 %
12.11.2020 04:16 8,7 C 8,3 C 7,8 C 96 % 1016,8 hPa 0,0 l/m 0 min 0 min 0 W/m 12,9 km/h (3 Bft) 95,74 %
12.11.2020 04:18 8,7 C 8,3 C 7,8 C 96 % 1016,7 hPa 0,0 l/m 0 min 0 min 0 W/m 12,9 km/h (3 Bft) 97,87 %
12.11.2020 04:20 8,7 C 8,3 C 7,8 C 96 % 1016,7 hPa 0,0 l/m 0 min 0 min 0 W/m 16,1 km/h (3 Bft) 95,74 %
12.11.2020 04:22 8,7 C 8,3 C 7,8 C 96 % 1016,7 hPa 0,0 l/m 0 min 0 min 0 W/m 12,9 km/h (3 Bft) 95,74 %
12.11.2020 04:24 8,7 C 8,3 C 7,8 C 96 % 1016,7 hPa 0,0 l/m 0 min 0 min 0 W/m 9,7 km/h (2 Bft) 97,83 %
12.11.2020 04:26 8,7 C 8,3 C 7,8 C 96 % 1016,6 hPa 0,0 l/m 0 min 0 min 0 W/m 19,3 km/h (3 Bft) 95,74 %
12.11.2020 04:28 8,7 C 8,3 C 7,8 C 96 % 1016,6 hPa 0,0 l/m 0 min 0 min 0 W/m 12,9 km/h (3 Bft) 97,87 %
12.11.2020 04:30 8,6 C 8,3 C 7,8 C 96 % 1016,5 hPa 0,0 l/m 0 min 0 min 0 W/m 12,9 km/h (3 Bft) 97,87 %
12.11.2020 04:32 8,6 C 8,3 C 7,8 C 96 % 1016,5 hPa 0,0 l/m 0 min 0 min 0 W/m 12,9 km/h (3 Bft) 95,74 %
12.11.2020 04:34 8,6 C 8,3 C 7,8 C 96 % 1016,5 hPa 0,0 l/m 0 min 0 min 0 W/m 19,3 km/h (3 Bft) 97,87 %
12.11.2020 04:36 8,6 C 8,3 C 7,8 C 96 % 1016,5 hPa 0,0 l/m 0 min 0 min 0 W/m 3,2 km/h (1 Bft) 95,65 %
12.11.2020 04:38 8,6 C 8,3 C 7,8 C 96 % 1016,5 hPa 0,0 l/m 0 min 0 min 0 W/m 9,7 km/h (2 Bft) 97,87 %
12.11.2020 04:40 8,6 C 8,3 C 7,8 C 96 % 1016,5 hPa 0,0 l/m 0 min 0 min 0 W/m 19,3 km/h (3 Bft) 97,87 %
12.11.2020 04:42 8,6 C 8,3 C 7,8 C 96 % 1016,6 hPa 0,0 l/m 0 min 0 min 0 W/m 16,1 km/h (3 Bft) 97,87 %
12.11.2020 04:44 8,6 C 8,3 C 7,8 C 95 % 1016,5 hPa 0,0 l/m 0 min 0 min 0 W/m 3,2 km/h (1 Bft) 100,00 %
12.11.2020 04:46 8,6 C 8,3 C 7,8 C 95 % 1016,4 hPa 0,0 l/m 0 min 0 min 0 W/m 6,4 km/h (2 Bft) 97,87 %
12.11.2020 04:48 8,6 C 8,3 C 7,8 C 95 % 1016,4 hPa 0,0 l/m 0 min 0 min 0 W/m 6,4 km/h (2 Bft) 95,65 %
12.11.2020 04:50 8,6 C 7,8 C 7,8 C 95 % 1016,3 hPa 0,0 l/m 0 min 0 min 0 W/m 3,2 km/h (1 Bft) 97,87 %
12.11.2020 04:52 8,6 C 7,8 C 7,8 C 95 % 1016,3 hPa 0,0 l/m 0 min 0 min 0 W/m 6,4 km/h (2 Bft) 97,87 %
12.11.2020 04:54 8,6 C 7,8 C 7,8 C 95 % 1016,4 hPa 0,0 l/m 0 min 0 min 0 W/m 6,4 km/h (2 Bft) 97,87 %
12.11.2020 04:56 8,6 C 7,8 C 7,8 C 95 % 1016,4 hPa 0,0 l/m 0 min 0 min 0 W/m 12,9 km/h (3 Bft) 95,74 %
12.11.2020 04:58 8,6 C 7,8 C 7,8 C 95 % 1016,4 hPa 0,0 l/m 0 min 0 min 0 W/m 12,9 km/h (3 Bft) 97,87 %
12.11.2020 05:00 8,6 C 7,8 C 7,8 C 95 % 1016,4 hPa 0,0 l/m 0 min 0 min 0 W/m 6,4 km/h (2 Bft) 97,87 %
12.11.2020 05:02 8,6 C 7,8 C 7,8 C 95 % 1016,5 hPa 0,0 l/m 0 min 0 min 0 W/m 3,2 km/h (1 Bft) 95,65 %
12.11.2020 05:04 8,6 C 8,3 C 7,8 C 95 % 1016,5 hPa 0,0 l/m 0 min 0 min 0 W/m 16,1 km/h (3 Bft) 97,87 %
12.11.2020 05:06 8,6 C 8,3 C 7,8 C 95 % 1016,5 hPa 0,0 l/m 0 min 0 min 0 W/m 9,7 km/h (2 Bft) 97,87 %
12.11.2020 05:08 8,6 C 7,8 C 7,8 C 95 % 1016,5 hPa 0,0 l/m 0 min 0 min 0 W/m 3,2 km/h (1 Bft) 97,87 %
12.11.2020 05:10 8,6 C 7,8 C 7,8 C 95 % 1016,5 hPa 0,0 l/m 0 min 0 min 0 W/m 19,3 km/h (3 Bft) 97,56 %
12.11.2020 05:12 8,6 C 8,3 C 7,8 C 95 % 1016,5 hPa 0,0 l/m 0 min 0 min 0 W/m 12,9 km/h (3 Bft) 97,83 %
12.11.2020 05:14 8,6 C 8,3 C 7,8 C 95 % 1016,4 hPa 0,0 l/m 0 min 0 min 0 W/m 9,7 km/h (2 Bft) 95,74 %
12.11.2020 05:16 8,6 C 7,8 C 7,8 C 95 % 1016,4 hPa 0,0 l/m 0 min 0 min 0 W/m 6,4 km/h (2 Bft) 95,74 %
12.11.2020 05:18 8,6 C 7,8 C 7,8 C 95 % 1016,4 hPa 0,0 l/m 0 min 0 min 0 W/m 12,9 km/h (3 Bft) 93,62 %
12.11.2020 05:20 8,6 C 7,8 C 7,8 C 95 % 1016,3 hPa 0,0 l/m 0 min 0 min 0 W/m 6,4 km/h (2 Bft) 93,62 %
12.11.2020 05:22 8,6 C 7,8 C 7,8 C 95 % 1016,3 hPa 0,0 l/m 0 min 0 min 0 W/m 19,3 km/h (3 Bft) 95,74 %
12.11.2020 05:24 8,6 C 7,8 C 7,8 C 95 % 1016,3 hPa 0,0 l/m 0 min 0 min 0 W/m 12,9 km/h (3 Bft) 95,65 %
12.11.2020 05:26 8,6 C 7,8 C 7,8 C 95 % 1016,2 hPa 0,0 l/m 0 min 0 min 0 W/m 9,7 km/h (2 Bft) 95,74 %
12.11.2020 05:28 8,6 C 7,8 C 7,8 C 95 % 1016,2 hPa 0,0 l/m 0 min 0 min 0 W/m 16,1 km/h (3 Bft) 93,62 %
12.11.2020 05:30 8,6 C 7,8 C 7,8 C 95 % 1016,2 hPa 0,0 l/m 0 min 0 min 0 W/m 6,4 km/h (2 Bft) 95,74 %
12.11.2020 05:32 8,6 C 7,8 C 7,8 C 95 % 1016,1 hPa 0,0 l/m 0 min 0 min 0 W/m 3,2 km/h (1 Bft) 93,62 %
12.11.2020 05:34 8,6 C 7,8 C 7,8 C 95 % 1016,2 hPa 0,0 l/m 0 min 0 min 0 W/m 16,1 km/h (3 Bft) 93,62 %
12.11.2020 05:36 8,6 C 7,8 C 7,8 C 95 % 1016,2 hPa 0,0 l/m 0 min 0 min 0 W/m 16,1 km/h (3 Bft) 93,48 %
12.11.2020 05:38 8,6 C 7,8 C 7,8 C 95 % 1016,2 hPa 0,0 l/m 0 min 0 min 0 W/m 3,2 km/h (1 Bft) 95,74 %
12.11.2020 05:40 8,6 C 7,8 C 7,8 C 95 % 1016,1 hPa 0,0 l/m 0 min 0 min 0 W/m 12,9 km/h (3 Bft) 95,74 %
12.11.2020 05:42 8,6 C 7,8 C 7,8 C 95 % 1016,1 hPa 0,0 l/m 0 min 0 min 0 W/m 3,2 km/h (1 Bft) 95,74 %
12.11.2020 05:44 8,6 C 7,8 C 7,8 C 95 % 1016,2 hPa 0,0 l/m 0 min 0 min 0 W/m 6,4 km/h (2 Bft) 93,62 %
12.11.2020 05:46 8,6 C 7,8 C 7,8 C 95 % 1016,1 hPa 0,0 l/m 0 min 0 min 0 W/m 16,1 km/h (3 Bft) 93,48 %
12.11.2020 05:48 8,6 C 7,8 C 7,8 C 95 % 1016,1 hPa 0,0 l/m 0 min 0 min 0 W/m 12,9 km/h (3 Bft) 93,62 %
12.11.2020 05:50 8,6 C 8,3 C 7,8 C 95 % 1016,1 hPa 0,0 l/m 0 min 0 min 0 W/m 12,9 km/h (3 Bft) 95,74 %
12.11.2020 05:52 8,6 C 8,3 C 7,8 C 95 % 1016,0 hPa 0,0 l/m 0 min 0 min 0 W/m 9,7 km/h (2 Bft) 97,87 %
12.11.2020 05:54 8,6 C 8,3 C 7,8 C 95 % 1016,1 hPa 0,0 l/m 0 min 0 min 0 W/m 16,1 km/h (3 Bft) 95,74 %
12.11.2020 05:56 8,6 C 8,3 C 7,8 C 95 % 1016,0 hPa 0,0 l/m 0 min 0 min 0 W/m 9,7 km/h (2 Bft) 93,62 %
12.11.2020 05:58 8,6 C 8,3 C 7,8 C 95 % 1016,1 hPa 0,0 l/m 0 min 0 min 0 W/m 12,9 km/h (3 Bft) 95,65 %
12.11.2020 06:00 8,7 C 8,3 C 7,8 C 95 % 1015,9 hPa 0,0 l/m 0 min 0 min 0 W/m 12,9 km/h (3 Bft) 95,74 %
12.11.2020 06:02 8,7 C 8,3 C 7,8 C 95 % 1016,1 hPa 0,0 l/m 0 min 0 min 0 W/m 25,7 km/h (4 Bft) 97,87 %
12.11.2020 06:04 8,7 C 8,3 C 7,8 C 95 % 1016,1 hPa 0,0 l/m 0 min 0 min 0 W/m 12,9 km/h (3 Bft) 97,87 %
12.11.2020 06:08 8,7 C 8,3 C 7,8 C 95 % 1016,1 hPa 0,0 l/m 0 min 0 min 0 W/m 16,1 km/h (3 Bft) 96,81 %
12.11.2020 06:10 8,7 C 8,3 C 7,8 C 95 % 1016,0 hPa 0,0 l/m 0 min 0 min 0 W/m 22,5 km/h (4 Bft) 97,83 %
12.11.2020 06:12 8,7 C 8,3 C 7,8 C 95 % 1015,9 hPa 0,0 l/m 0 min 0 min 0 W/m 12,9 km/h (3 Bft) 95,74 %
12.11.2020 06:14 8,7 C 8,3 C 7,8 C 95 % 1015,9 hPa 0,0 l/m 0 min 0 min 0 W/m 16,1 km/h (3 Bft) 97,87 %
12.11.2020 06:16 8,8 C 8,3 C 7,8 C 95 % 1015,9 hPa 0,0 l/m 0 min 0 min 0 W/m 19,3 km/h (3 Bft) 97,87 %
12.11.2020 06:18 8,7 C 8,3 C 7,8 C 95 % 1015,8 hPa 0,0 l/m 0 min 0 min 0 W/m 16,1 km/h (3 Bft) 97,87 %
12.11.2020 06:20 8,8 C 8,3 C 7,8 C 95 % 1015,8 hPa 0,0 l/m 0 min 0 min 0 W/m 6,4 km/h (2 Bft) 97,87 %
12.11.2020 06:22 8,8 C 8,3 C 7,8 C 95 % 1015,7 hPa 0,0 l/m 0 min 0 min 0 W/m 19,3 km/h (3 Bft) 97,83 %
12.11.2020 06:24 8,8 C 8,3 C 7,8 C 95 % 1015,7 hPa 0,0 l/m 0 min 0 min 0 W/m 12,9 km/h (3 Bft) 100,00 %
12.11.2020 06:26 8,8 C 8,3 C 7,8 C 95 % 1015,8 hPa 0,0 l/m 0 min 0 min 0 W/m 16,1 km/h (3 Bft) 100,00 %
12.11.2020 06:28 8,8 C 8,3 C 8,4 C 95 % 1015,7 hPa 0,0 l/m 0 min 0 min 0 W/m 9,7 km/h (2 Bft) 100,00 %
12.11.2020 06:30 8,8 C 8,3 C 8,4 C 95 % 1015,7 hPa 0,0 l/m 0 min 0 min 0 W/m 19,3 km/h (3 Bft) 100,00 %
12.11.2020 06:32 8,8 C 8,3 C 8,4 C 95 % 1015,7 hPa 0,0 l/m 0 min 0 min 0 W/m 6,4 km/h (2 Bft) 98,08 %
12.11.2020 06:34 8,8 C 8,3 C 8,4 C 95 % 1015,7 hPa 0,0 l/m 0 min 0 min 0 W/m 12,9 km/h (3 Bft) 100,00 %
12.11.2020 06:36 8,8 C 8,3 C 8,4 C 95 % 1015,6 hPa 0,0 l/m 0 min 0 min 0 W/m 3,2 km/h (1 Bft) 100,00 %
12.11.2020 06:38 8,8 C 8,3 C 8,4 C 95 % 1015,7 hPa 0,0 l/m 0 min 0 min 0 W/m 12,9 km/h (3 Bft) 97,87 %
12.11.2020 06:40 8,8 C 8,3 C 8,4 C 95 % 1015,6 hPa 0,0 l/m 0 min 0 min 0 W/m 16,1 km/h (3 Bft) 100,00 %
12.11.2020 06:42 8,8 C 8,3 C 8,4 C 95 % 1015,7 hPa 0,0 l/m 0 min 0 min 0 W/m 19,3 km/h (3 Bft) 100,00 %
12.11.2020 06:44 8,9 C 8,3 C 8,4 C 95 % 1015,6 hPa 0,0 l/m 0 min 0 min 0 W/m 6,4 km/h (2 Bft) 100,00 %
12.11.2020 06:46 8,9 C 8,3 C 8,4 C 95 % 1015,7 hPa 0,0 l/m 0 min 0 min 0 W/m 12,9 km/h (3 Bft) 100,00 %
12.11.2020 06:48 8,9 C 8,3 C 8,4 C 95 % 1015,8 hPa 0,0 l/m 0 min 0 min 0 W/m 16,1 km/h (3 Bft) 100,00 %
12.11.2020 06:50 8,9 C 8,3 C 8,4 C 95 % 1015,8 hPa 0,0 l/m 0 min 0 min 0 W/m 16,1 km/h (3 Bft) 100,00 %
12.11.2020 06:52 8,9 C 8,3 C 8,4 C 95 % 1015,7 hPa 0,0 l/m 0 min 0 min 0 W/m 19,3 km/h (3 Bft) 100,00 %
12.11.2020 06:54 8,9 C 8,3 C 8,4 C 95 % 1015,8 hPa 0,0 l/m 0 min 0 min 0 W/m 12,9 km/h (3 Bft) 100,00 %
12.11.2020 06:56 8,9 C 8,3 C 8,4 C 95 % 1015,8 hPa 0,0 l/m 0 min 0 min 0 W/m 19,3 km/h (3 Bft) 100,00 %
12.11.2020 06:58 8,9 C 8,3 C 8,4 C 95 % 1015,8 hPa 0,0 l/m 0 min 0 min 0 W/m 16,1 km/h (3 Bft) 100,00 %
12.11.2020 07:00 8,9 C 8,3 C 8,4 C 95 % 1015,8 hPa 0,0 l/m 0 min 0 min 0 W/m 6,4 km/h (2 Bft) 100,00 %
12.11.2020 07:02 9,0 C 8,3 C 8,4 C 95 % 1015,7 hPa 0,0 l/m 0 min 0 min 0 W/m 16,1 km/h (3 Bft) 100,00 %
12.11.2020 07:04 9,0 C 8,3 C 8,4 C 95 % 1015,8 hPa 0,0 l/m 0 min 0 min 0 W/m 12,9 km/h (3 Bft) 100,00 %
12.11.2020 07:06 9,0 C 8,9 C 8,4 C 95 % 1015,8 hPa 0,0 l/m 0 min 0 min 0 W/m 19,3 km/h (3 Bft) 100,00 %
12.11.2020 07:08 9,0 C 8,9 C 8,4 C 95 % 1015,8 hPa 0,0 l/m 0 min 0 min 0 W/m 16,1 km/h (3 Bft) 100,00 %
12.11.2020 07:10 9,0 C 8,9 C 8,4 C 95 % 1015,8 hPa 0,0 l/m 0 min 0 min 0 W/m 6,4 km/h (2 Bft) 100,00 %
12.11.2020 07:12 9,1 C 8,9 C 8,4 C 95 % 1015,7 hPa 0,0 l/m 0 min 0 min 0 W/m 19,3 km/h (3 Bft) 100,00 %
12.11.2020 07:14 9,1 C 8,9 C 8,4 C 95 % 1015,7 hPa 0,0 l/m 0 min 0 min 0 W/m 16,1 km/h (3 Bft) 100,00 %
12.11.2020 07:16 9,1 C 8,9 C 8,4 C 95 % 1015,7 hPa 0,0 l/m 0 min 0 min 0 W/m 19,3 km/h (3 Bft) 100,00 %
12.11.2020 07:18 9,1 C 8,9 C 8,4 C 95 % 1015,7 hPa 0,0 l/m 0 min 0 min 0 W/m 19,3 km/h (3 Bft) 100,00 %
12.11.2020 07:20 9,2 C 8,9 C 8,4 C 95 % 1015,7 hPa 0,0 l/m 0 min 0 min 0 W/m 3,2 km/h (1 Bft) 100,00 %
12.11.2020 07:22 9,2 C 8,9 C 8,4 C 95 % 1015,7 hPa 0,0 l/m 0 min 0 min 0 W/m 19,3 km/h (3 Bft) 97,83 %
12.11.2020 07:24 9,2 C 8,9 C 8,4 C 95 % 1015,7 hPa 0,0 l/m 0 min 0 min 0 W/m 16,1 km/h (3 Bft) 100,00 %
12.11.2020 07:26 9,3 C 8,9 C 8,9 C 95 % 1015,8 hPa 0,0 l/m 0 min 0 min 0 W/m 6,4 km/h (2 Bft) 100,00 %
12.11.2020 07:28 9,3 C 8,9 C 8,9 C 95 % 1015,8 hPa 0,0 l/m 0 min 0 min 0 W/m 3,2 km/h (1 Bft) 100,00 %
12.11.2020 07:30 9,3 C 8,3 C 8,4 C 95 % 1015,7 hPa 0,0 l/m 0 min 2 min 0 W/m 16,1 km/h (3 Bft) 100,00 %
12.11.2020 07:32 9,3 C 8,3 C 8,4 C 95 % 1015,8 hPa 0,0 l/m 0 min 2 min 0 W/m 3,2 km/h (1 Bft) 95,83 %
12.11.2020 07:34 9,3 C 8,3 C 8,4 C 95 % 1015,7 hPa 0,0 l/m 0 min 2 min 0 W/m 6,4 km/h (2 Bft) 100,00 %
12.11.2020 07:36 9,3 C 7,8 C 8,4 C 95 % 1015,7 hPa 0,2 l/m 0 min 2 min 0 W/m 6,4 km/h (2 Bft) 97,87 %
12.11.2020 07:38 9,3 C 7,8 C 8,4 C 95 % 1015,8 hPa 0,0 l/m 0 min 2 min 0 W/m 12,9 km/h (3 Bft) 100,00 %
12.11.2020 07:40 9,4 C 7,8 C 8,4 C 95 % 1015,7 hPa 0,0 l/m 0 min 2 min 0 W/m 16,1 km/h (3 Bft) 100,00 %
12.11.2020 07:42 9,4 C 7,8 C 8,4 C 95 % 1015,8 hPa 0,0 l/m 0 min 2 min 0 W/m 6,4 km/h (2 Bft) 100,00 %
12.11.2020 07:44 9,4 C 7,8 C 7,8 C 95 % 1015,7 hPa 0,0 l/m 0 min 2 min 0 W/m 16,1 km/h (3 Bft) 100,00 %
12.11.2020 07:46 9,4 C 7,8 C 8,4 C 95 % 1015,7 hPa 0,0 l/m 0 min 2 min 0 W/m 12,9 km/h (3 Bft) 100,00 %
12.11.2020 07:48 9,4 C 7,8 C 8,4 C 95 % 1015,6 hPa 0,0 l/m 0 min 0 min 0 W/m 12,9 km/h (3 Bft) 100,00 %
12.11.2020 07:50 9,4 C 7,8 C 7,8 C 95 % 1015,6 hPa 0,0 l/m 0 min 0 min 0 W/m 16,1 km/h (3 Bft) 97,87 %
12.11.2020 07:52 9,4 C 7,8 C 7,8 C 96 % 1015,7 hPa 0,0 l/m 0 min 0 min 0 W/m 6,4 km/h (2 Bft) 100,00 %
12.11.2020 07:54 9,3 C 7,8 C 7,8 C 96 % 1015,7 hPa 0,0 l/m 0 min 2 min 0 W/m 12,9 km/h (3 Bft) 97,87 %
12.11.2020 07:56 9,4 C 7,8 C 8,4 C 96 % 1015,7 hPa 0,0 l/m 0 min 2 min 0 W/m 6,4 km/h (2 Bft) 97,83 %
12.11.2020 07:58 9,4 C 8,3 C 8,4 C 96 % 1015,7 hPa 0,0 l/m 0 min 0 min 0 W/m 12,9 km/h (3 Bft) 97,87 %
12.11.2020 08:00 9,4 C 8,3 C 8,4 C 96 % 1015,8 hPa 0,0 l/m 0 min 0 min 0 W/m 19,3 km/h (3 Bft) 97,87 %
12.11.2020 08:02 9,3 C 8,3 C 8,4 C 96 % 1015,7 hPa 0,0 l/m 0 min 0 min 0 W/m 12,9 km/h (3 Bft) 95,74 %
12.11.2020 08:04 9,4 C 8,3 C 8,4 C 96 % 1015,8 hPa 0,0 l/m 0 min 0 min 0 W/m 12,9 km/h (3 Bft) 97,87 %
12.11.2020 08:06 9,4 C 8,3 C 8,4 C 96 % 1015,8 hPa 0,0 l/m 0 min 0 min 0 W/m 16,1 km/h (3 Bft) 95,74 %
12.11.2020 08:08 9,4 C 8,3 C 8,4 C 96 % 1015,8 hPa 0,0 l/m 0 min 0 min 0 W/m 12,9 km/h (3 Bft) 95,74 %
12.11.2020 08:10 9,4 C 8,3 C 8,4 C 96 % 1015,8 hPa 0,0 l/m 0 min 0 min 0 W/m 19,3 km/h (3 Bft) 97,87 %
12.11.2020 08:12 9,4 C 8,3 C 8,4 C 96 % 1015,8 hPa 0,0 l/m 0 min 0 min 0 W/m 22,5 km/h (4 Bft) 97,87 %
12.11.2020 08:14 9,4 C 8,3 C 8,4 C 96 % 1015,8 hPa 0,0 l/m 0 min 0 min 0 W/m 25,7 km/h (4 Bft) 97,87 %
12.11.2020 08:16 9,4 C 8,3 C 8,4 C 96 % 1015,8 hPa 0,0 l/m 0 min 0 min 0 W/m 16,1 km/h (3 Bft) 95,74 %
12.11.2020 08:18 9,4 C 8,3 C 8,4 C 96 % 1015,8 hPa 0,0 l/m 0 min 0 min 0 W/m 25,7 km/h (4 Bft) 97,87 %
12.11.2020 08:20 9,4 C 8,3 C 8,4 C 96 % 1015,9 hPa 0,0 l/m 0 min 0 min 0 W/m 16,1 km/h (3 Bft) 97,83 %
12.11.2020 08:22 9,4 C 8,3 C 8,4 C 96 % 1015,9 hPa 0,0 l/m 0 min 0 min 0 W/m 12,9 km/h (3 Bft) 93,62 %
12.11.2020 08:24 9,4 C 8,3 C 8,4 C 96 % 1016,0 hPa 0,0 l/m 0 min 0 min 0 W/m 16,1 km/h (3 Bft) 95,74 %
12.11.2020 08:26 9,4 C 8,3 C 8,4 C 96 % 1016,1 hPa 0,0 l/m 0 min 0 min 0 W/m 16,1 km/h (3 Bft) 91,49 %
12.11.2020 08:28 9,4 C 8,3 C 8,4 C 96 % 1016,0 hPa 0,0 l/m 0 min 0 min 0 W/m 6,4 km/h (2 Bft) 95,74 %
12.11.2020 08:30 9,4 C 8,3 C 8,4 C 96 % 1016,0 hPa 0,0 l/m 0 min 0 min 0 W/m 12,9 km/h (3 Bft) 95,74 %
12.11.2020 08:32 9,4 C 8,3 C 8,4 C 96 % 1016,1 hPa 0,0 l/m 0 min 0 min 0 W/m 16,1 km/h (3 Bft) 91,49 %
12.11.2020 08:34 9,4 C 8,3 C 8,4 C 96 % 1016,0 hPa 0,0 l/m 0 min 0 min 2 W/m 12,9 km/h (3 Bft) 95,74 %
12.11.2020 08:36 9,4 C 8,3 C 8,4 C 96 % 1016,1 hPa 0,0 l/m 0 min 0 min 5 W/m 12,9 km/h (3 Bft) 95,74 %
12.11.2020 08:38 9,4 C 8,3 C 8,4 C 96 % 1016,2 hPa 0,0 l/m 0 min 0 min 0 W/m 12,9 km/h (3 Bft) 95,74 %
12.11.2020 08:40 9,4 C 8,3 C 8,4 C 96 % 1016,2 hPa 0,0 l/m 0 min 0 min 0 W/m 6,4 km/h (2 Bft) 93,88 %
12.11.2020 08:42 9,5 C 8,3 C 8,4 C 96 % 1016,1 hPa 0,0 l/m 0 min 2 min 0 W/m 12,9 km/h (3 Bft) 97,83 %
12.11.2020 08:44 9,5 C 8,3 C 8,4 C 96 % 1016,2 hPa 0,0 l/m 0 min 0 min 0 W/m 12,9 km/h (3 Bft) 97,87 %
12.11.2020 08:46 9,5 C 8,3 C 8,4 C 96 % 1016,3 hPa 0,0 l/m 0 min 0 min 0 W/m 9,7 km/h (2 Bft) 95,74 %
12.11.2020 08:48 9,5 C 8,3 C 8,4 C 96 % 1016,3 hPa 0,0 l/m 0 min 0 min 0 W/m 16,1 km/h (3 Bft) 97,87 %
12.11.2020 08:50 9,5 C 8,3 C 8,4 C 96 % 1016,3 hPa 0,0 l/m 0 min 0 min 0 W/m 12,9 km/h (3 Bft) 98,11 %
12.11.2020 08:52 9,5 C 8,3 C 8,4 C 96 % 1016,3 hPa 0,0 l/m 0 min 0 min 2 W/m 16,1 km/h (3 Bft) 97,83 %
12.11.2020 08:54 9,5 C 8,3 C 8,4 C 96 % 1016,3 hPa 0,0 l/m 0 min 0 min 2 W/m 6,4 km/h (2 Bft) 97,87 %
12.11.2020 08:56 9,5 C 8,3 C 8,4 C 96 % 1016,3 hPa 0,0 l/m 0 min 0 min 0 W/m 12,9 km/h (3 Bft) 97,87 %
12.11.2020 08:58 9,5 C 8,3 C 8,4 C 96 % 1016,3 hPa 0,0 l/m 0 min 0 min 0 W/m 12,9 km/h (3 Bft) 95,74 %
12.11.2020 09:00 9,5 C 8,3 C 8,4 C 96 % 1016,3 hPa 0,0 l/m 0 min 0 min 0 W/m 16,1 km/h (3 Bft) 97,87 %
12.11.2020 09:02 9,5 C 8,3 C 8,4 C 96 % 1016,3 hPa 0,0 l/m 0 min 0 min 4 W/m 6,4 km/h (2 Bft) 95,74 %
12.11.2020 09:04 9,5 C 8,3 C 8,4 C 96 % 1016,4 hPa 0,0 l/m 0 min 0 min 1 W/m 12,9 km/h (3 Bft) 97,83 %
12.11.2020 09:06 9,5 C 8,3 C 8,4 C 96 % 1016,4 hPa 0,0 l/m 0 min 0 min 0 W/m 19,3 km/h (3 Bft) 97,87 %
12.11.2020 09:08 9,5 C 8,3 C 8,4 C 96 % 1016,4 hPa 0,0 l/m 0 min 0 min 0 W/m 12,9 km/h (3 Bft) 100,00 %
12.11.2020 09:10 9,5 C 8,3 C 8,4 C 96 % 1016,4 hPa 0,0 l/m 0 min 0 min 0 W/m 16,1 km/h (3 Bft) 100,00 %
12.11.2020 09:12 9,6 C 8,3 C 8,4 C 96 % 1016,4 hPa 0,0 l/m 0 min 0 min 0 W/m 19,3 km/h (3 Bft) 100,00 %
12.11.2020 09:14 9,6 C 8,3 C 8,4 C 96 % 1016,4 hPa 0,0 l/m 0 min 0 min 4 W/m 6,4 km/h (2 Bft) 100,00 %
12.11.2020 09:16 9,6 C 8,3 C 8,4 C 96 % 1016,5 hPa 0,0 l/m 0 min 0 min 1 W/m 6,4 km/h (2 Bft) 100,00 %
12.11.2020 09:18 9,6 C 8,9 C 8,4 C 96 % 1016,5 hPa 0,0 l/m 0 min 0 min 0 W/m 3,2 km/h (1 Bft) 100,00 %
12.11.2020 09:20 9,6 C 8,9 C 8,4 C 96 % 1016,6 hPa 0,0 l/m 0 min 0 min 4 W/m 6,4 km/h (2 Bft) 97,87 %
12.11.2020 09:22 9,6 C 8,9 C 8,4 C 96 % 1016,6 hPa 0,0 l/m 0 min 0 min 10 W/m 3,2 km/h (1 Bft) 100,00 %
12.11.2020 09:24 9,6 C 8,9 C 8,9 C 96 % 1016,7 hPa 0,0 l/m 0 min 0 min 16 W/m 3,2 km/h (1 Bft) 100,00 %
12.11.2020 09:26 9,6 C 8,9 C 8,9 C 96 % 1016,7 hPa 0,0 l/m 0 min 0 min 20 W/m 12,9 km/h (3 Bft) 97,87 %
12.11.2020 09:28 9,7 C 8,9 C 8,9 C 96 % 1016,7 hPa 0,0 l/m 0 min 0 min 23 W/m 3,2 km/h (1 Bft) 47,62 %
12.11.2020 09:30 9,7 C 8,9 C 8,9 C 96 % 1016,8 hPa 0,0 l/m 0 min 0 min 25 W/m 0,0 km/h (0 Bft) 95,74 %
12.11.2020 09:32 9,7 C 8,9 C 8,9 C 96 % 1016,7 hPa 0,0 l/m 0 min 0 min 26 W/m 0,0 km/h (0 Bft) 97,87 %
12.11.2020 09:34 9,7 C 8,9 C 8,9 C 96 % 1016,7 hPa 0,0 l/m 0 min 0 min 22 W/m 0,0 km/h (0 Bft) 97,87 %
12.11.2020 09:36 9,7 C 8,9 C 8,9 C 96 % 1016,8 hPa 0,0 l/m 0 min 0 min 19 W/m 0,0 km/h (0 Bft) 97,87 %
12.11.2020 09:38 9,8 C 8,9 C 8,9 C 96 % 1016,8 hPa 0,0 l/m 0 min 0 min 18 W/m 3,2 km/h (1 Bft) 95,74 %
12.11.2020 09:40 9,8 C 8,9 C 8,9 C 96 % 1016,7 hPa 0,0 l/m 0 min 0 min 29 W/m 6,4 km/h (2 Bft) 97,83 %
12.11.2020 09:42 9,8 C 8,9 C 8,9 C 96 % 1016,8 hPa 0,0 l/m 0 min 0 min 38 W/m 0,0 km/h (0 Bft) 97,87 %
12.11.2020 09:44 9,8 C 9,4 C 8,9 C 96 % 1016,8 hPa 0,0 l/m 0 min 0 min 42 W/m 12,9 km/h (3 Bft) 97,87 %
12.11.2020 09:46 9,8 C 9,4 C 8,9 C 96 % 1016,9 hPa 0,0 l/m 0 min 0 min 38 W/m 0,0 km/h (0 Bft) 97,87 %
12.11.2020 09:48 9,8 C 9,4 C 8,9 C 96 % 1016,8 hPa 0,0 l/m 0 min 0 min 52 W/m 0,0 km/h (0 Bft) 97,87 %
12.11.2020 09:50 9,8 C 9,4 C 9,5 C 97 % 1016,8 hPa 0,0 l/m 0 min 0 min 72 W/m 3,2 km/h (1 Bft) 97,87 %
12.11.2020 09:52 9,9 C 9,4 C 9,5 C 97 % 1016,9 hPa 0,0 l/m 0 min 0 min 69 W/m 6,4 km/h (2 Bft) 97,83 %
12.11.2020 09:54 9,9 C 9,4 C 9,5 C 97 % 1016,9 hPa 0,0 l/m 0 min 0 min 60 W/m 3,2 km/h (1 Bft) 97,87 %
12.11.2020 09:56 9,9 C 9,4 C 9,5 C 97 % 1016,9 hPa 0,0 l/m 0 min 0 min 49 W/m 3,2 km/h (1 Bft) 95,74 %
12.11.2020 09:58 9,9 C 9,4 C 9,5 C 97 % 1016,9 hPa 0,0 l/m 0 min 0 min 38 W/m 0,0 km/h (0 Bft) 95,74 %
12.11.2020 10:00 9,9 C 10,0 C 9,5 C 97 % 1016,9 hPa 0,0 l/m 0 min 0 min 42 W/m 3,2 km/h (1 Bft) 97,14 %
12.11.2020 10:02 10,0 C 10,0 C 9,5 C 97 % 1016,9 hPa 0,0 l/m 0 min 0 min 72 W/m 6,4 km/h (2 Bft) 98,08 %
12.11.2020 10:04 10,0 C 10,0 C 10,0 C 97 % 1016,9 hPa 0,0 l/m 0 min 0 min 86 W/m 12,9 km/h (3 Bft) 97,87 %
12.11.2020 10:06 10,0 C 10,6 C 10,0 C 97 % 1016,9 hPa 0,0 l/m 0 min 0 min 72 W/m 0,0 km/h (0 Bft) 97,87 %
12.11.2020 10:08 10,1 C 10,6 C 10,0 C 97 % 1017,1 hPa 0,0 l/m 0 min 0 min 87 W/m 12,9 km/h (3 Bft) 97,87 %
12.11.2020 10:10 10,1 C 10,6 C 10,0 C 97 % 1017,1 hPa 0,0 l/m 0 min 0 min 108 W/m 3,2 km/h (1 Bft) 97,87 %
12.11.2020 10:12 10,3 C 11,1 C 10,6 C 97 % 1017,0 hPa 0,0 l/m 0 min 0 min 114 W/m 3,2 km/h (1 Bft) 97,87 %
12.11.2020 10:14 10,3 C 11,1 C 10,6 C 97 % 1017,0 hPa 0,0 l/m 0 min 0 min 105 W/m 16,1 km/h (3 Bft) 97,83 %
12.11.2020 10:16 10,4 C 11,7 C 10,6 C 97 % 1017,1 hPa 0,0 l/m 0 min 0 min 126 W/m 22,5 km/h (4 Bft) 97,87 %
12.11.2020 10:18 10,5 C 11,7 C 11,1 C 97 % 1017,0 hPa 0,0 l/m 0 min 0 min 131 W/m 32,2 km/h (5 Bft) 97,87 %
12.11.2020 10:20 10,6 C 11,7 C 11,1 C 97 % 1017,2 hPa 0,0 l/m 0 min 0 min 122 W/m 25,7 km/h (4 Bft) 97,87 %
12.11.2020 10:22 10,8 C 11,7 C 11,1 C 97 % 1017,1 hPa 0,0 l/m 0 min 0 min 104 W/m 32,2 km/h (5 Bft) 95,74 %
12.11.2020 10:24 10,9 C 12,2 C 11,1 C 97 % 1017,1 hPa 0,0 l/m 0 min 0 min 94 W/m 25,7 km/h (4 Bft) 95,74 %
12.11.2020 10:26 11,1 C 12,2 C 11,1 C 97 % 1017,1 hPa 0,0 l/m 0 min 0 min 73 W/m 25,7 km/h (4 Bft) 95,65 %
12.11.2020 10:28 11,2 C 11,7 C 11,1 C 97 % 1017,1 hPa 0,0 l/m 0 min 0 min 49 W/m 25,7 km/h (4 Bft) 97,87 %
12.11.2020 10:30 11,3 C 11,7 C 11,1 C 97 % 1017,0 hPa 0,0 l/m 0 min 0 min 46 W/m 22,5 km/h (4 Bft) 97,87 %
12.11.2020 10:32 11,3 C 11,7 C 11,1 C 96 % 1017,1 hPa 0,0 l/m 0 min 0 min 66 W/m 19,3 km/h (3 Bft) 97,87 %
12.11.2020 10:34 11,4 C 12,2 C 11,1 C 96 % 1017,1 hPa 0,0 l/m 0 min 0 min 97 W/m 22,5 km/h (4 Bft) 97,87 %
12.11.2020 10:36 11,5 C 12,2 C 11,1 C 96 % 1017,1 hPa 0,0 l/m 0 min 0 min 81 W/m 25,7 km/h (4 Bft) 97,87 %
12.11.2020 10:38 11,5 C 12,2 C 11,1 C 95 % 1017,1 hPa 0,0 l/m 0 min 0 min 72 W/m 38,6 km/h (5 Bft) 97,83 %
12.11.2020 10:40 11,6 C 12,2 C 11,1 C 95 % 1017,1 hPa 0,2 l/m 0 min 0 min 97 W/m 41,8 km/h (6 Bft) 97,87 %
12.11.2020 10:42 11,8 C 12,2 C 11,7 C 94 % 1017,1 hPa 0,0 l/m 0 min 0 min 102 W/m 19,3 km/h (3 Bft) 97,83 %
12.11.2020 10:44 11,9 C 12,2 C 11,1 C 94 % 1017,2 hPa 0,0 l/m 0 min 0 min 78 W/m 38,6 km/h (5 Bft) 91,49 %
12.11.2020 10:46 12,0 C 12,2 C 11,1 C 93 % 1017,2 hPa 0,0 l/m 0 min 0 min 77 W/m 38,6 km/h (5 Bft) 95,74 %
12.11.2020 10:48 12,0 C 12,2 C 11,1 C 92 % 1017,3 hPa 0,0 l/m 0 min 0 min 66 W/m 38,6 km/h (5 Bft) 95,74 %
12.11.2020 10:50 12,1 C 12,2 C 11,1 C 92 % 1017,3 hPa 0,0 l/m 0 min 0 min 53 W/m 25,7 km/h (4 Bft) 95,74 %
12.11.2020 10:52 12,2 C 12,2 C 11,1 C 91 % 1017,2 hPa 0,0 l/m 0 min 0 min 54 W/m 32,2 km/h (5 Bft) 93,48 %
12.11.2020 10:54 12,3 C 12,2 C 11,1 C 91 % 1017,3 hPa 0,0 l/m 0 min 0 min 68 W/m 41,8 km/h (6 Bft) 97,87 %
12.11.2020 10:56 12,3 C 12,2 C 11,1 C 91 % 1017,2 hPa 0,0 l/m 0 min 0 min 73 W/m 25,7 km/h (4 Bft) 95,74 %
12.11.2020 10:58 12,4 C 12,2 C 11,1 C 90 % 1017,5 hPa 0,0 l/m 0 min 0 min 98 W/m 41,8 km/h (6 Bft) 97,87 %
12.11.2020 11:00 12,4 C 12,8 C 11,7 C 90 % 1017,3 hPa 0,0 l/m 0 min 0 min 139 W/m 32,2 km/h (5 Bft) 95,74 %
12.11.2020 11:02 12,5 C 12,8 C 11,7 C 89 % 1017,4 hPa 0,0 l/m 2 min 0 min 169 W/m 48,3 km/h (6 Bft) 93,62 %
12.11.2020 11:04 12,5 C 12,8 C 11,7 C 89 % 1017,2 hPa 0,0 l/m 0 min 0 min 151 W/m 29,0 km/h (5 Bft) 95,74 %
12.11.2020 11:06 12,6 C 13,3 C 11,7 C 88 % 1017,3 hPa 0,0 l/m 2 min 0 min 189 W/m 25,7 km/h (4 Bft) 93,62 %
12.11.2020 11:08 12,6 C 15,0 C 12,2 C 88 % 1017,3 hPa 0,0 l/m 2 min 0 min 315 W/m 22,5 km/h (4 Bft) 95,74 %
12.11.2020 11:10 12,8 C 14,4 C 12,2 C 88 % 1017,3 hPa 0,0 l/m 2 min 0 min 377 W/m 35,4 km/h (5 Bft) 95,74 %
12.11.2020 11:12 12,9 C 15,0 C 12,2 C 87 % 1017,4 hPa 0,0 l/m 2 min 0 min 367 W/m 29,0 km/h (5 Bft) 95,74 %
12.11.2020 11:14 13,0 C 15,0 C 12,2 C 87 % 1017,3 hPa 0,0 l/m 2 min 0 min 338 W/m 25,7 km/h (4 Bft) 95,65 %
12.11.2020 11:16 13,1 C 15,0 C 12,2 C 87 % 1017,3 hPa 0,0 l/m 2 min 0 min 306 W/m 19,3 km/h (3 Bft) 95,74 %
12.11.2020 11:18 13,2 C 13,9 C 12,2 C 86 % 1017,4 hPa 0,0 l/m 0 min 0 min 112 W/m 22,5 km/h (4 Bft) 93,62 %
12.11.2020 11:20 13,3 C 15,0 C 12,2 C 86 % 1017,4 hPa 0,0 l/m 2 min 0 min 189 W/m 16,1 km/h (3 Bft) 95,74 %
12.11.2020 11:22 13,3 C 13,9 C 12,2 C 86 % 1017,4 hPa 0,0 l/m 2 min 0 min 265 W/m 19,3 km/h (3 Bft) 95,74 %
12.11.2020 11:24 13,4 C 13,9 C 12,2 C 85 % 1017,4 hPa 0,0 l/m 0 min 0 min 92 W/m 6,4 km/h (2 Bft) 97,83 %
12.11.2020 11:26 13,4 C 13,9 C 11,7 C 85 % 1017,6 hPa 0,0 l/m 0 min 0 min 108 W/m 16,1 km/h (3 Bft) 97,87 %
12.11.2020 11:28 13,4 C 12,8 C 11,7 C 84 % 1017,5 hPa 0,0 l/m 0 min 0 min 73 W/m 22,5 km/h (4 Bft) 95,74 %
12.11.2020 11:30 13,4 C 12,8 C 11,7 C 84 % 1017,5 hPa 0,0 l/m 0 min 0 min 54 W/m 22,5 km/h (4 Bft) 97,87 %
12.11.2020 11:32 13,3 C 12,2 C 11,7 C 84 % 1017,5 hPa 0,0 l/m 0 min 0 min 53 W/m 12,9 km/h (3 Bft) 95,74 %
12.11.2020 11:34 13,3 C 12,2 C 11,7 C 84 % 1017,5 hPa 0,0 l/m 0 min 0 min 55 W/m 16,1 km/h (3 Bft) 95,74 %
12.11.2020 11:36 13,2 C 13,3 C 12,2 C 84 % 1017,5 hPa 0,0 l/m 0 min 0 min 52 W/m 6,4 km/h (2 Bft) 95,65 %
12.11.2020 11:38 13,2 C 12,8 C 11,7 C 84 % 1017,7 hPa 0,0 l/m 0 min 0 min 65 W/m 12,9 km/h (3 Bft) 97,87 %
12.11.2020 11:40 13,1 C 12,2 C 11,7 C 84 % 1017,5 hPa 0,0 l/m 0 min 0 min 89 W/m 19,3 km/h (3 Bft) 97,87 %
12.11.2020 11:42 13,1 C 12,2 C 11,7 C 83 % 1017,6 hPa 0,0 l/m 0 min 0 min 95 W/m 19,3 km/h (3 Bft) 95,74 %
12.11.2020 11:44 13,0 C 12,2 C 11,7 C 83 % 1017,5 hPa 0,0 l/m 0 min 0 min 70 W/m 22,5 km/h (4 Bft) 97,87 %
12.11.2020 11:46 13,0 C 12,2 C 11,7 C 83 % 1017,6 hPa 0,0 l/m 0 min 0 min 59 W/m 35,4 km/h (5 Bft) 97,87 %
12.11.2020 11:48 12,9 C 12,2 C 11,1 C 83 % 1017,5 hPa 0,0 l/m 0 min 0 min 54 W/m 25,7 km/h (4 Bft) 97,83 %
12.11.2020 11:50 12,9 C 12,2 C 11,1 C 83 % 1017,5 hPa 0,0 l/m 0 min 0 min 63 W/m 16,1 km/h (3 Bft) 97,87 %
12.11.2020 11:52 12,9 C 12,2 C 11,1 C 84 % 1017,4 hPa 0,0 l/m 0 min 0 min 55 W/m 19,3 km/h (3 Bft) 97,87 %
12.11.2020 11:54 12,8 C 12,2 C 11,7 C 84 % 1017,5 hPa 0,0 l/m 0 min 0 min 68 W/m 29,0 km/h (5 Bft) 97,87 %
12.11.2020 11:56 12,8 C 13,3 C 12,8 C 84 % 1017,6 hPa 0,0 l/m 0 min 0 min 96 W/m 29,0 km/h (5 Bft) 97,87 %
12.11.2020 11:58 12,8 C 14,4 C 13,9 C 84 % 1017,6 hPa 0,0 l/m 2 min 0 min 308 W/m 35,4 km/h (5 Bft) 97,87 %
12.11.2020 12:00 12,9 C 15,0 C 15,0 C 84 % 1017,5 hPa 0,0 l/m 2 min 0 min 371 W/m 35,4 km/h (5 Bft) 97,83 %
12.11.2020 12:02 13,0 C 13,9 C 13,9 C 84 % 1017,5 hPa 0,0 l/m 2 min 0 min 312 W/m 35,4 km/h (5 Bft) 95,74 %
12.11.2020 12:04 13,0 C 13,9 C 13,4 C 83 % 1017,5 hPa 0,0 l/m 0 min 0 min 144 W/m 19,3 km/h (3 Bft) 97,87 %
12.11.2020 12:07 13,1 C 14,4 C 13,9 C 83 % 1017,5 hPa 0,0 l/m 3 min 0 min 203 W/m 35,4 km/h (5 Bft) 98,57 %
12.11.2020 12:08 13,1 C 15,0 C 14,5 C 83 % 1017,5 hPa 0,0 l/m 1 min 0 min 396 W/m 16,1 km/h (3 Bft) 95,83 %
12.11.2020 12:10 13,1 C 13,3 C 13,4 C 82 % 1017,6 hPa 0,0 l/m 2 min 0 min 311 W/m 32,2 km/h (5 Bft) 100,00 %
12.11.2020 12:12 13,1 C 12,8 C 12,2 C 82 % 1017,6 hPa 0,0 l/m 0 min 0 min 94 W/m 35,4 km/h (5 Bft) 100,00 %
12.11.2020 12:14 13,2 C 12,8 C 11,7 C 82 % 1017,6 hPa 0,0 l/m 0 min 0 min 55 W/m 25,7 km/h (4 Bft) 100,00 %
12.11.2020 12:16 13,1 C 12,2 C 11,7 C 82 % 1017,6 hPa 0,0 l/m 0 min 0 min 65 W/m 22,5 km/h (4 Bft) 100,00 %
12.11.2020 12:18 13,1 C 12,2 C 11,7 C 82 % 1017,7 hPa 0,0 l/m 0 min 0 min 75 W/m 19,3 km/h (3 Bft) 100,00 %
12.11.2020 12:20 13,1 C 12,8 C 11,7 C 82 % 1017,6 hPa 0,0 l/m 0 min 0 min 68 W/m 16,1 km/h (3 Bft) 100,00 %
12.11.2020 12:22 13,1 C 12,8 C 11,7 C 82 % 1017,6 hPa 0,0 l/m 0 min 0 min 68 W/m 12,9 km/h (3 Bft) 100,00 %
12.11.2020 12:24 13,0 C 12,2 C 11,7 C 82 % 1017,6 hPa 0,0 l/m 0 min 0 min 78 W/m 29,0 km/h (5 Bft) 100,00 %
12.11.2020 12:26 13,0 C 12,8 C 11,7 C 82 % 1017,7 hPa 0,0 l/m 0 min 0 min 71 W/m 35,4 km/h (5 Bft) 100,00 %
12.11.2020 12:28 13,0 C 12,2 C 11,7 C 82 % 1017,6 hPa 0,0 l/m 0 min 0 min 65 W/m 22,5 km/h (4 Bft) 97,87 %
12.11.2020 12:30 12,9 C 12,2 C 11,1 C 82 % 1017,6 hPa 0,0 l/m 0 min 0 min 44 W/m 19,3 km/h (3 Bft) 100,00 %
12.11.2020 12:32 12,9 C 12,2 C 11,1 C 82 % 1017,5 hPa 0,0 l/m 0 min 0 min 32 W/m 29,0 km/h (5 Bft) 100,00 %
12.11.2020 12:34 12,9 C 12,2 C 11,1 C 82 % 1017,6 hPa 0,0 l/m 0 min 0 min 33 W/m 12,9 km/h (3 Bft) 100,00 %
12.11.2020 12:36 12,9 C 12,2 C 11,1 C 82 % 1017,6 hPa 0,0 l/m 0 min 0 min 43 W/m 6,4 km/h (2 Bft) 100,00 %
12.11.2020 12:38 12,9 C 12,8 C 11,7 C 82 % 1017,6 hPa 0,0 l/m 0 min 0 min 103 W/m 19,3 km/h (3 Bft) 100,00 %
12.11.2020 12:40 12,8 C 12,2 C 11,7 C 82 % 1017,6 hPa 0,0 l/m 0 min 0 min 51 W/m 6,4 km/h (2 Bft) 100,00 %
12.11.2020 12:42 12,8 C 13,9 C 12,8 C 82 % 1017,6 hPa 0,0 l/m 0 min 0 min 78 W/m 9,7 km/h (2 Bft) 100,00 %
12.11.2020 12:44 12,8 C 15,0 C 14,5 C 82 % 1017,6 hPa 0,0 l/m 2 min 0 min 364 W/m 16,1 km/h (3 Bft) 100,00 %
12.11.2020 12:46 12,8 C 14,4 C 13,4 C 82 % 1017,6 hPa 0,0 l/m 2 min 0 min 256 W/m 9,7 km/h (2 Bft) 100,00 %
12.11.2020 12:48 12,8 C 13,9 C 13,9 C 82 % 1017,6 hPa 0,0 l/m 0 min 0 min 69 W/m 16,1 km/h (3 Bft) 100,00 %
12.11.2020 12:50 12,9 C 13,3 C 12,8 C 82 % 1017,6 hPa 0,0 l/m 0 min 0 min 72 W/m 6,4 km/h (2 Bft) 100,00 %
12.11.2020 12:52 12,9 C 12,8 C 12,8 C 82 % 1017,6 hPa 0,0 l/m 0 min 0 min 77 W/m 12,9 km/h (3 Bft) 100,00 %
12.11.2020 12:54 12,9 C 12,8 C 12,2 C 82 % 1017,5 hPa 0,0 l/m 0 min 0 min 86 W/m 16,1 km/h (3 Bft) 100,00 %
12.11.2020 12:56 12,9 C 14,4 C 13,9 C 82 % 1017,5 hPa 0,0 l/m 2 min 0 min 189 W/m 6,4 km/h (2 Bft) 100,00 %
12.11.2020 12:58 13,0 C 13,3 C 12,8 C 82 % 1017,5 hPa 0,0 l/m 2 min 0 min 301 W/m 22,5 km/h (4 Bft) 100,00 %
12.11.2020 13:00 13,0 C 12,8 C 12,2 C 81 % 1017,5 hPa 0,0 l/m 0 min 0 min 88 W/m 19,3 km/h (3 Bft) 100,00 %
12.11.2020 13:02 13,0 C 12,8 C 11,7 C 81 % 1017,6 hPa 0,0 l/m 0 min 0 min 55 W/m 16,1 km/h (3 Bft) 100,00 %
12.11.2020 13:04 13,0 C 12,2 C 11,7 C 80 % 1017,5 hPa 0,0 l/m 0 min 0 min 42 W/m 16,1 km/h (3 Bft) 100,00 %
12.11.2020 13:06 13,0 C 12,2 C 11,7 C 80 % 1017,6 hPa 0,0 l/m 0 min 0 min 38 W/m 12,9 km/h (3 Bft) 97,87 %
12.11.2020 13:08 13,0 C 12,2 C 11,7 C 80 % 1017,6 hPa 0,0 l/m 0 min 0 min 36 W/m 12,9 km/h (3 Bft) 100,00 %
12.11.2020 13:10 13,0 C 12,2 C 11,1 C 80 % 1017,6 hPa 0,0 l/m 0 min 0 min 41 W/m 29,0 km/h (5 Bft) 97,83 %
12.11.2020 13:12 12,9 C 12,2 C 11,1 C 80 % 1017,6 hPa 0,0 l/m 0 min 0 min 40 W/m 12,9 km/h (3 Bft) 97,87 %
12.11.2020 13:14 12,9 C 12,2 C 11,1 C 80 % 1017,7 hPa 0,0 l/m 0 min 0 min 38 W/m 12,9 km/h (3 Bft) 95,74 %
12.11.2020 13:16 12,9 C 12,2 C 11,1 C 80 % 1017,7 hPa 0,0 l/m 0 min 0 min 38 W/m 19,3 km/h (3 Bft) 95,74 %
12.11.2020 13:18 12,9 C 11,7 C 10,6 C 81 % 1017,7 hPa 0,0 l/m 0 min 0 min 40 W/m 3,2 km/h (1 Bft) 95,74 %
12.11.2020 13:20 12,9 C 11,7 C 10,6 C 81 % 1017,7 hPa 0,0 l/m 0 min 0 min 54 W/m 16,1 km/h (3 Bft) 93,62 %
12.11.2020 13:22 12,9 C 11,7 C 10,6 C 82 % 1017,8 hPa 0,0 l/m 0 min 0 min 83 W/m 6,4 km/h (2 Bft) 95,65 %
12.11.2020 13:24 12,9 C 12,2 C 11,1 C 82 % 1017,7 hPa 0,0 l/m 0 min 0 min 105 W/m 25,7 km/h (4 Bft) 95,74 %
12.11.2020 13:26 12,9 C 12,2 C 11,1 C 82 % 1017,8 hPa 0,0 l/m 0 min 0 min 95 W/m 29,0 km/h (5 Bft) 95,74 %
12.11.2020 13:28 12,9 C 12,8 C 11,7 C 82 % 1017,8 hPa 0,0 l/m 0 min 0 min 106 W/m 6,4 km/h (2 Bft) 93,62 %
12.11.2020 13:30 12,9 C 12,8 C 11,7 C 82 % 1017,7 hPa 0,0 l/m 0 min 0 min 112 W/m 29,0 km/h (5 Bft) 95,74 %
12.11.2020 13:32 12,9 C 12,8 C 11,7 C 81 % 1017,8 hPa 0,0 l/m 0 min 0 min 134 W/m 6,4 km/h (2 Bft) 95,83 %
12.11.2020 13:34 12,9 C 13,3 C 12,2 C 82 % 1017,8 hPa 0,0 l/m 0 min 0 min 154 W/m 25,7 km/h (4 Bft) 95,65 %
12.11.2020 13:36 12,9 C 15,0 C 15,0 C 82 % 1017,8 hPa 0,0 l/m 2 min 0 min 341 W/m 19,3 km/h (3 Bft) 95,74 %
12.11.2020 13:38 12,9 C 15,6 C 16,1 C 82 % 1017,7 hPa 0,0 l/m 2 min 0 min 447 W/m 19,3 km/h (3 Bft) 93,62 %
12.11.2020 13:40 13,0 C 15,6 C 16,7 C 81 % 1017,7 hPa 0,0 l/m 2 min 0 min 446 W/m 38,6 km/h (5 Bft) 95,74 %
12.11.2020 13:42 13,1 C 16,1 C 17,2 C 81 % 1017,6 hPa 0,0 l/m 2 min 0 min 438 W/m 19,3 km/h (3 Bft) 95,74 %
12.11.2020 13:44 13,3 C 14,4 C 15,0 C 81 % 1017,6 hPa 0,0 l/m 2 min 0 min 439 W/m 29,0 km/h (5 Bft) 95,74 %
12.11.2020 13:46 13,4 C 13,3 C 13,4 C 80 % 1017,7 hPa 0,0 l/m 0 min 0 min 144 W/m 35,4 km/h (5 Bft) 95,65 %
12.11.2020 13:48 13,4 C 12,8 C 12,2 C 80 % 1017,7 hPa 0,0 l/m 0 min 0 min 96 W/m 32,2 km/h (5 Bft) 95,74 %
12.11.2020 13:50 13,4 C 12,8 C 12,2 C 80 % 1017,7 hPa 0,0 l/m 0 min 0 min 80 W/m 25,7 km/h (4 Bft) 95,74 %
12.11.2020 13:52 13,4 C 12,8 C 11,7 C 80 % 1017,7 hPa 0,0 l/m 0 min 0 min 60 W/m 29,0 km/h (5 Bft) 93,62 %
12.11.2020 13:54 13,4 C 12,8 C 11,7 C 79 % 1017,7 hPa 0,0 l/m 0 min 0 min 47 W/m 25,7 km/h (4 Bft) 93,62 %
12.11.2020 13:56 13,4 C 12,8 C 11,7 C 79 % 1017,7 hPa 0,0 l/m 0 min 0 min 44 W/m 16,1 km/h (3 Bft) 95,65 %
12.11.2020 13:58 13,4 C 12,8 C 11,7 C 79 % 1017,8 hPa 0,0 l/m 0 min 0 min 48 W/m 22,5 km/h (4 Bft) 100,00 %
12.11.2020 14:00 13,3 C 12,8 C 11,7 C 79 % 1017,7 hPa 0,0 l/m 0 min 0 min 55 W/m 25,7 km/h (4 Bft) 97,87 %
12.11.2020 14:02 13,3 C 12,8 C 11,7 C 79 % 1017,8 hPa 0,0 l/m 0 min 0 min 59 W/m 16,1 km/h (3 Bft) 100,00 %
12.11.2020 14:04 13,3 C 12,8 C 11,7 C 79 % 1017,8 hPa 0,0 l/m 0 min 0 min 67 W/m 32,2 km/h (5 Bft) 100,00 %
12.11.2020 14:06 13,2 C 12,8 C 11,7 C 79 % 1017,8 hPa 0,0 l/m 0 min 0 min 96 W/m 25,7 km/h (4 Bft) 97,87 %
12.11.2020 14:08 13,1 C 12,8 C 11,7 C 79 % 1017,9 hPa 0,0 l/m 0 min 0 min 108 W/m 32,2 km/h (5 Bft) 97,83 %
12.11.2020 14:10 13,1 C 12,8 C 11,7 C 79 % 1017,8 hPa 0,0 l/m 0 min 0 min 90 W/m 32,2 km/h (5 Bft) 97,87 %
12.11.2020 14:12 13,1 C 12,8 C 11,7 C 79 % 1017,8 hPa 0,0 l/m 0 min 0 min 76 W/m 12,9 km/h (3 Bft) 97,87 %
12.11.2020 14:14 13,1 C 12,8 C 11,7 C 79 % 1017,8 hPa 0,0 l/m 0 min 0 min 69 W/m 25,7 km/h (4 Bft) 97,87 %
12.11.2020 14:16 13,1 C 12,2 C 11,7 C 79 % 1017,8 hPa 0,0 l/m 0 min 0 min 60 W/m 25,7 km/h (4 Bft) 97,87 %
12.11.2020 14:18 13,0 C 12,2 C 11,1 C 79 % 1017,9 hPa 0,0 l/m 0 min 0 min 54 W/m 6,4 km/h (2 Bft) 100,00 %
12.11.2020 14:20 13,0 C 12,2 C 11,1 C 80 % 1017,8 hPa 0,0 l/m 0 min 0 min 54 W/m 6,4 km/h (2 Bft) 97,83 %
12.11.2020 14:22 13,0 C 12,2 C 11,1 C 80 % 1017,9 hPa 0,0 l/m 0 min 0 min 58 W/m 29,0 km/h (5 Bft) 100,00 %
12.11.2020 14:24 13,0 C 12,2 C 11,1 C 79 % 1017,9 hPa 0,0 l/m 0 min 0 min 57 W/m 22,5 km/h (4 Bft) 97,87 %
12.11.2020 14:26 13,0 C 12,2 C 11,1 C 79 % 1017,9 hPa 0,0 l/m 0 min 0 min 53 W/m 22,5 km/h (4 Bft) 97,87 %
12.11.2020 14:28 13,0 C 12,2 C 11,1 C 80 % 1017,9 hPa 0,0 l/m 0 min 0 min 54 W/m 0,0 km/h (0 Bft) 97,87 %
12.11.2020 14:30 13,0 C 12,2 C 11,1 C 80 % 1017,9 hPa 0,0 l/m 0 min 0 min 57 W/m 16,1 km/h (3 Bft) 95,74 %
12.11.2020 14:32 13,0 C 12,2 C 11,1 C 79 % 1017,9 hPa 0,0 l/m 0 min 0 min 74 W/m 29,0 km/h (5 Bft) 97,83 %
12.11.2020 14:34 12,9 C 12,2 C 11,7 C 79 % 1017,8 hPa 0,0 l/m 0 min 0 min 86 W/m 35,4 km/h (5 Bft) 95,74 %
12.11.2020 14:36 12,9 C 12,2 C 11,1 C 79 % 1017,8 hPa 0,0 l/m 0 min 0 min 71 W/m 38,6 km/h (5 Bft) 97,87 %
12.11.2020 14:38 12,9 C 12,2 C 11,1 C 79 % 1017,8 hPa 0,0 l/m 0 min 0 min 66 W/m 29,0 km/h (5 Bft) 97,87 %
12.11.2020 14:40 12,9 C 12,2 C 11,1 C 79 % 1017,9 hPa 0,0 l/m 0 min 0 min 77 W/m 35,4 km/h (5 Bft) 97,87 %
12.11.2020 14:42 12,9 C 12,2 C 11,7 C 80 % 1017,9 hPa 0,0 l/m 0 min 0 min 72 W/m 25,7 km/h (4 Bft) 97,87 %
12.11.2020 14:44 12,9 C 12,2 C 11,1 C 80 % 1017,9 hPa 0,0 l/m 0 min 0 min 62 W/m 25,7 km/h (4 Bft) 97,83 %
12.11.2020 14:46 12,9 C 12,2 C 11,1 C 80 % 1017,9 hPa 0,0 l/m 0 min 0 min 46 W/m 22,5 km/h (4 Bft) 97,67 %
12.11.2020 14:48 12,9 C 12,2 C 11,1 C 80 % 1017,9 hPa 0,0 l/m 0 min 0 min 39 W/m 22,5 km/h (4 Bft) 97,87 %
12.11.2020 14:50 12,9 C 12,2 C 11,1 C 80 % 1018,0 hPa 0,0 l/m 0 min 0 min 44 W/m 16,1 km/h (3 Bft) 95,74 %
12.11.2020 14:52 12,9 C 12,2 C 11,1 C 79 % 1018,0 hPa 0,0 l/m 0 min 0 min 47 W/m 16,1 km/h (3 Bft) 95,74 %
12.11.2020 14:54 12,9 C 12,2 C 11,1 C 80 % 1018,0 hPa 0,0 l/m 0 min 0 min 52 W/m 19,3 km/h (3 Bft) 95,74 %
12.11.2020 14:56 12,9 C 12,2 C 11,1 C 80 % 1018,0 hPa 0,0 l/m 0 min 0 min 61 W/m 16,1 km/h (3 Bft) 97,83 %
12.11.2020 14:58 12,9 C 12,2 C 11,1 C 79 % 1018,0 hPa 0,0 l/m 0 min 0 min 62 W/m 29,0 km/h (5 Bft) 95,74 %
12.11.2020 15:00 12,9 C 12,2 C 11,1 C 79 % 1018,0 hPa 0,0 l/m 0 min 0 min 57 W/m 19,3 km/h (3 Bft) 97,87 %
12.11.2020 15:02 12,9 C 12,2 C 11,1 C 79 % 1018,0 hPa 0,0 l/m 0 min 0 min 55 W/m 12,9 km/h (3 Bft) 95,74 %
12.11.2020 15:04 12,9 C 12,2 C 11,1 C 79 % 1018,1 hPa 0,0 l/m 0 min 0 min 54 W/m 19,3 km/h (3 Bft) 97,87 %
12.11.2020 15:06 12,9 C 12,2 C 11,1 C 79 % 1018,1 hPa 0,0 l/m 0 min 0 min 52 W/m 32,2 km/h (5 Bft) 95,74 %
12.11.2020 15:08 12,9 C 12,2 C 11,1 C 79 % 1018,2 hPa 0,0 l/m 0 min 0 min 49 W/m 29,0 km/h (5 Bft) 98,28 %
12.11.2020 15:10 12,9 C 12,2 C 11,1 C 79 % 1018,2 hPa 0,0 l/m 0 min 0 min 51 W/m 22,5 km/h (4 Bft) 94,29 %
12.11.2020 15:12 12,9 C 12,2 C 11,1 C 79 % 1018,2 hPa 0,0 l/m 0 min 0 min 53 W/m 25,7 km/h (4 Bft) 97,87 %
12.11.2020 15:14 12,9 C 12,2 C 11,1 C 79 % 1018,2 hPa 0,0 l/m 0 min 0 min 60 W/m 16,1 km/h (3 Bft) 97,87 %
12.11.2020 15:16 12,9 C 12,2 C 11,1 C 79 % 1018,2 hPa 0,0 l/m 0 min 0 min 68 W/m 32,2 km/h (5 Bft) 95,74 %
12.11.2020 15:18 12,9 C 12,2 C 11,1 C 79 % 1018,2 hPa 0,0 l/m 0 min 0 min 65 W/m 25,7 km/h (4 Bft) 97,87 %
12.11.2020 15:20 12,9 C 12,2 C 11,1 C 79 % 1018,1 hPa 0,0 l/m 0 min 0 min 62 W/m 25,7 km/h (4 Bft) 97,83 %
12.11.2020 15:22 12,8 C 12,2 C 11,1 C 79 % 1018,1 hPa 0,0 l/m 0 min 0 min 57 W/m 29,0 km/h (5 Bft) 97,87 %
12.11.2020 15:24 12,9 C 12,2 C 11,1 C 78 % 1018,2 hPa 0,0 l/m 0 min 0 min 56 W/m 35,4 km/h (5 Bft) 95,74 %
12.11.2020 15:26 12,9 C 12,2 C 11,1 C 78 % 1018,2 hPa 0,0 l/m 0 min 0 min 57 W/m 35,4 km/h (5 Bft) 95,74 %
12.11.2020 15:28 12,9 C 12,2 C 11,1 C 78 % 1018,2 hPa 0,0 l/m 0 min 0 min 56 W/m 32,2 km/h (5 Bft) 48,72 %
12.11.2020 15:30 12,8 C 12,2 C 11,1 C 78 % 1018,2 hPa 0,0 l/m 0 min 0 min 55 W/m 41,8 km/h (6 Bft) 100,00 %
12.11.2020 15:32 12,9 C 12,2 C 11,1 C 78 % 1018,2 hPa 0,0 l/m 0 min 0 min 58 W/m 32,2 km/h (5 Bft) 100,00 %
12.11.2020 15:34 12,8 C 12,2 C 11,1 C 78 % 1018,2 hPa 0,0 l/m 0 min 0 min 55 W/m 35,4 km/h (5 Bft) 100,00 %
12.11.2020 15:36 12,9 C 12,2 C 11,1 C 78 % 1018,3 hPa 0,0 l/m 0 min 0 min 50 W/m 29,0 km/h (5 Bft) 100,00 %
12.11.2020 15:38 12,8 C 12,2 C 11,1 C 78 % 1018,4 hPa 0,0 l/m 0 min 0 min 45 W/m 32,2 km/h (5 Bft) 100,00 %
12.11.2020 15:40 12,8 C 12,2 C 11,1 C 78 % 1018,4 hPa 0,0 l/m 0 min 0 min 41 W/m 32,2 km/h (5 Bft) 100,00 %
12.11.2020 15:42 12,8 C 12,2 C 11,1 C 78 % 1018,4 hPa 0,0 l/m 0 min 0 min 38 W/m 25,7 km/h (4 Bft) 100,00 %
12.11.2020 15:44 12,8 C 12,2 C 11,1 C 79 % 1018,5 hPa 0,0 l/m 0 min 0 min 36 W/m 19,3 km/h (3 Bft) 100,00 %
12.11.2020 15:46 12,8 C 12,2 C 11,1 C 78 % 1018,5 hPa 0,0 l/m 0 min 0 min 39 W/m 38,6 km/h (5 Bft) 100,00 %
12.11.2020 15:48 12,8 C 12,2 C 11,1 C 78 % 1018,5 hPa 0,0 l/m 0 min 0 min 37 W/m 16,1 km/h (3 Bft) 95,74 %
12.11.2020 15:50 12,8 C 12,2 C 11,1 C 79 % 1018,5 hPa 0,0 l/m 0 min 0 min 36 W/m 35,4 km/h (5 Bft) 100,00 %
12.11.2020 15:52 12,8 C 12,2 C 11,1 C 79 % 1018,5 hPa 0,0 l/m 0 min 0 min 34 W/m 25,7 km/h (4 Bft) 97,87 %
12.11.2020 15:54 12,8 C 12,2 C 10,6 C 79 % 1018,5 hPa 0,0 l/m 0 min 0 min 31 W/m 22,5 km/h (4 Bft) 97,83 %
12.11.2020 15:56 12,8 C 12,2 C 10,6 C 78 % 1018,5 hPa 0,0 l/m 0 min 0 min 29 W/m 22,5 km/h (4 Bft) 97,87 %
12.11.2020 15:58 12,8 C 12,2 C 10,6 C 79 % 1018,5 hPa 0,0 l/m 0 min 0 min 27 W/m 19,3 km/h (3 Bft) 95,74 %
12.11.2020 16:00 12,8 C 12,2 C 10,6 C 79 % 1018,6 hPa 0,0 l/m 0 min 0 min 26 W/m 6,4 km/h (2 Bft) 97,87 %
12.11.2020 16:02 12,7 C 12,2 C 10,6 C 79 % 1018,7 hPa 0,0 l/m 0 min 0 min 24 W/m 32,2 km/h (5 Bft) 100,00 %
12.11.2020 16:04 12,7 C 12,2 C 10,6 C 79 % 1018,7 hPa 0,0 l/m 0 min 0 min 22 W/m 19,3 km/h (3 Bft) 97,87 %
12.11.2020 16:06 12,7 C 12,2 C 10,6 C 79 % 1018,6 hPa 0,0 l/m 0 min 0 min 21 W/m 25,7 km/h (4 Bft) 93,48 %
12.11.2020 16:08 12,7 C 12,2 C 10,6 C 79 % 1018,6 hPa 0,0 l/m 0 min 0 min 19 W/m 35,4 km/h (5 Bft) 97,87 %
12.11.2020 16:10 12,7 C 12,2 C 10,6 C 79 % 1018,6 hPa 0,0 l/m 0 min 0 min 18 W/m 22,5 km/h (4 Bft) 97,87 %
12.11.2020 16:12 12,6 C 12,2 C 10,6 C 79 % 1018,6 hPa 0,0 l/m 0 min 0 min 18 W/m 22,5 km/h (4 Bft) 97,87 %
12.11.2020 16:14 12,6 C 11,7 C 10,6 C 79 % 1018,6 hPa 0,0 l/m 0 min 0 min 17 W/m 19,3 km/h (3 Bft) 95,74 %
12.11.2020 16:16 12,6 C 11,7 C 10,6 C 79 % 1018,6 hPa 0,0 l/m 0 min 0 min 15 W/m 19,3 km/h (3 Bft) 97,83 %
12.11.2020 16:18 12,6 C 11,7 C 10,6 C 79 % 1018,6 hPa 0,0 l/m 0 min 0 min 14 W/m 22,5 km/h (4 Bft) 97,87 %
12.11.2020 16:20 12,6 C 11,7 C 10,6 C 79 % 1018,6 hPa 0,0 l/m 0 min 0 min 15 W/m 22,5 km/h (4 Bft) 95,74 %
12.11.2020 16:22 12,6 C 12,2 C 10,6 C 79 % 1018,6 hPa 0,0 l/m 0 min 0 min 12 W/m 22,5 km/h (4 Bft) 97,87 %
12.11.2020 16:24 12,6 C 12,2 C 10,6 C 79 % 1018,6 hPa 0,0 l/m 0 min 0 min 11 W/m 25,7 km/h (4 Bft) 97,87 %
12.11.2020 16:26 12,5 C 11,7 C 10,6 C 79 % 1018,5 hPa 0,0 l/m 0 min 0 min 11 W/m 22,5 km/h (4 Bft) 97,87 %
12.11.2020 16:28 12,5 C 11,7 C 10,6 C 79 % 1018,4 hPa 0,0 l/m 0 min 0 min 11 W/m 22,5 km/h (4 Bft) 95,65 %
12.11.2020 16:30 12,5 C 11,7 C 10,6 C 79 % 1018,5 hPa 0,0 l/m 0 min 0 min 12 W/m 19,3 km/h (3 Bft) 95,74 %
12.11.2020 16:32 12,5 C 11,7 C 10,6 C 79 % 1018,5 hPa 0,0 l/m 0 min 0 min 12 W/m 25,7 km/h (4 Bft) 93,75 %
12.11.2020 16:34 12,5 C 11,7 C 10,6 C 79 % 1018,5 hPa 0,0 l/m 0 min 0 min 12 W/m 22,5 km/h (4 Bft) 93,62 %
12.11.2020 16:36 12,5 C 11,7 C 10,6 C 79 % 1018,4 hPa 0,0 l/m 0 min 0 min 12 W/m 25,7 km/h (4 Bft) 93,62 %
12.11.2020 16:38 12,5 C 11,7 C 10,6 C 79 % 1018,4 hPa 0,0 l/m 0 min 0 min 10 W/m 16,1 km/h (3 Bft) 97,87 %
12.11.2020 16:40 12,5 C 11,7 C 10,6 C 79 % 1018,4 hPa 0,0 l/m 0 min 0 min 8 W/m 25,7 km/h (4 Bft) 97,83 %
12.11.2020 16:42 12,5 C 11,7 C 10,6 C 79 % 1018,5 hPa 0,0 l/m 0 min 0 min 7 W/m 19,3 km/h (3 Bft) 95,74 %
12.11.2020 16:44 12,5 C 11,7 C 10,0 C 79 % 1018,5 hPa 0,0 l/m 0 min 0 min 5 W/m 12,9 km/h (3 Bft) 97,87 %
12.11.2020 16:46 12,5 C 11,7 C 10,0 C 79 % 1018,6 hPa 0,0 l/m 0 min 0 min 5 W/m 12,9 km/h (3 Bft) 97,87 %
12.11.2020 16:48 12,4 C 11,1 C 10,0 C 79 % 1018,6 hPa 0,0 l/m 0 min 0 min 0 W/m 16,1 km/h (3 Bft) 98,15 %
12.11.2020 16:50 12,4 C 11,1 C 10,0 C 79 % 1018,7 hPa 0,0 l/m 0 min 0 min 0 W/m 12,9 km/h (3 Bft) 97,87 %
12.11.2020 16:52 12,4 C 11,1 C 10,0 C 79 % 1018,7 hPa 0,0 l/m 0 min 0 min 0 W/m 6,4 km/h (2 Bft) 97,87 %
12.11.2020 16:54 12,3 C 11,1 C 10,0 C 80 % 1018,7 hPa 0,0 l/m 0 min 0 min 0 W/m 16,1 km/h (3 Bft) 97,87 %
12.11.2020 16:56 12,3 C 11,1 C 10,0 C 80 % 1018,7 hPa 0,0 l/m 0 min 0 min 0 W/m 0,0 km/h (0 Bft) 97,87 %
12.11.2020 17:00 12,2 C 11,1 C 10,0 C 80 % 1018,8 hPa 0,0 l/m 0 min 0 min 0 W/m 19,3 km/h (3 Bft) 97,65 %
12.11.2020 17:02 12,1 C 11,1 C 10,0 C 80 % 1018,8 hPa 0,0 l/m 0 min 0 min 0 W/m 16,1 km/h (3 Bft) 97,87 %
12.11.2020 17:04 12,1 C 11,1 C 10,0 C 80 % 1018,7 hPa 0,0 l/m 0 min 0 min 0 W/m 19,3 km/h (3 Bft) 95,65 %
12.11.2020 17:06 12,1 C 11,1 C 10,0 C 80 % 1018,8 hPa 0,0 l/m 0 min 0 min 0 W/m 19,3 km/h (3 Bft) 97,87 %
12.11.2020 17:08 12,1 C 11,1 C 10,0 C 81 % 1018,8 hPa 0,0 l/m 0 min 0 min 0 W/m 16,1 km/h (3 Bft) 97,87 %
12.11.2020 17:10 12,1 C 11,1 C 10,0 C 81 % 1018,8 hPa 0,0 l/m 0 min 0 min 0 W/m 22,5 km/h (4 Bft) 93,62 %
12.11.2020 17:12 12,0 C 11,7 C 10,0 C 81 % 1018,8 hPa 0,0 l/m 0 min 0 min 0 W/m 32,2 km/h (5 Bft) 95,74 %
12.11.2020 17:15 12,0 C 11,7 C 10,0 C 81 % 1018,8 hPa 0,0 l/m 0 min 0 min 0 W/m 32,2 km/h (5 Bft) 99,12 %
12.11.2020 17:20 12,0 C 11,7 C 10,0 C 81 % 1019,0 hPa 0,0 l/m 0 min 0 min 0 W/m 22,5 km/h (4 Bft) 99,12 %
12.11.2020 17:25 12,0 C 11,7 C 10,0 C 81 % 1019,0 hPa 0,0 l/m 0 min 0 min 0 W/m 25,7 km/h (4 Bft) 98,25 %
12.11.2020 17:30 12,0 C 11,7 C 10,0 C 81 % 1019,0 hPa 0,0 l/m 0 min 0 min 0 W/m 22,5 km/h (4 Bft) 98,04 %
12.11.2020 17:32 12,0 C 11,7 C 10,0 C 80 % 1018,9 hPa 0,0 l/m 0 min 0 min 0 W/m 32,2 km/h (5 Bft) 95,74 %
12.11.2020 17:34 12,0 C 11,7 C 10,0 C 80 % 1018,9 hPa 0,0 l/m 0 min 0 min 0 W/m 25,7 km/h (4 Bft) 93,75 %
12.11.2020 17:36 12,0 C 11,1 C 10,0 C 80 % 1019,0 hPa 0,0 l/m 0 min 0 min 0 W/m 25,7 km/h (4 Bft) 97,92 %
12.11.2020 17:38 12,0 C 11,7 C 10,0 C 80 % 1019,0 hPa 0,0 l/m 0 min 0 min 0 W/m 25,7 km/h (4 Bft) 97,87 %
12.11.2020 17:40 12,0 C 11,1 C 10,0 C 80 % 1018,9 hPa 0,0 l/m 0 min 0 min 0 W/m 29,0 km/h (5 Bft) 97,30 %
12.11.2020 17:42 12,0 C 11,1 C 10,0 C 80 % 1019,0 hPa 0,0 l/m 0 min 0 min 0 W/m 16,1 km/h (3 Bft) 97,83 %
12.11.2020 17:44 12,0 C 11,1 C 10,0 C 80 % 1019,0 hPa 0,0 l/m 0 min 0 min 0 W/m 12,9 km/h (3 Bft) 95,74 %
12.11.2020 17:46 12,0 C 11,1 C 10,0 C 80 % 1019,0 hPa 0,0 l/m 0 min 0 min 0 W/m 12,9 km/h (3 Bft) 98,31 %
12.11.2020 17:48 12,0 C 11,1 C 10,0 C 80 % 1019,0 hPa 0,0 l/m 0 min 0 min 0 W/m 12,9 km/h (3 Bft) 97,87 %
12.11.2020 17:50 12,0 C 11,1 C 10,0 C 81 % 1019,0 hPa 0,0 l/m 0 min 0 min 0 W/m 12,9 km/h (3 Bft) 95,74 %
12.11.2020 17:52 12,0 C 11,1 C 10,0 C 81 % 1019,0 hPa 0,0 l/m 0 min 0 min 0 W/m 12,9 km/h (3 Bft) 97,14 %
12.11.2020 17:54 11,9 C 11,1 C 10,0 C 81 % 1019,0 hPa 0,0 l/m 0 min 0 min 0 W/m 6,4 km/h (2 Bft) 98,11 %
12.11.2020 17:56 11,9 C 11,1 C 9,5 C 81 % 1019,1 hPa 0,0 l/m 0 min 0 min 0 W/m 3,2 km/h (1 Bft) 97,92 %
12.11.2020 17:58 11,9 C 11,1 C 9,5 C 81 % 1019,2 hPa 0,0 l/m 0 min 0 min 0 W/m 25,7 km/h (4 Bft) 94,74 %
12.11.2020 18:00 11,9 C 11,1 C 9,5 C 80 % 1019,2 hPa 0,0 l/m 0 min 0 min 0 W/m 19,3 km/h (3 Bft) 97,87 %
12.11.2020 18:02 11,8 C 11,1 C 9,5 C 81 % 1019,3 hPa 0,0 l/m 0 min 0 min 0 W/m 12,9 km/h (3 Bft) 98,00 %
12.11.2020 18:04 11,8 C 11,1 C 9,5 C 81 % 1019,3 hPa 0,0 l/m 0 min 0 min 0 W/m 12,9 km/h (3 Bft) 97,96 %
12.11.2020 18:07 11,8 C 10,6 C 9,5 C 80 % 1019,3 hPa 0,0 l/m 0 min 0 min 0 W/m 19,3 km/h (3 Bft) 91,55 %
12.11.2020 18:08 11,7 C 10,6 C 9,5 C 80 % 1019,3 hPa 0,0 l/m 0 min 0 min 0 W/m 0,0 km/h (0 Bft) 95,65 %
12.11.2020 18:10 11,7 C 10,6 C 9,5 C 81 % 1019,3 hPa 0,0 l/m 0 min 0 min 0 W/m 16,1 km/h (3 Bft) 97,87 %
12.11.2020 18:12 11,6 C 10,6 C 9,5 C 81 % 1019,3 hPa 0,0 l/m 0 min 0 min 0 W/m 16,1 km/h (3 Bft) 97,87 %
12.11.2020 18:14 11,6 C 10,6 C 9,5 C 81 % 1019,4 hPa 0,0 l/m 0 min 0 min 0 W/m 3,2 km/h (1 Bft) 95,74 %
12.11.2020 18:16 11,6 C 10,6 C 9,5 C 81 % 1019,4 hPa 0,0 l/m 0 min 0 min 0 W/m 16,1 km/h (3 Bft) 100,00 %
12.11.2020 18:18 11,5 C 10,6 C 9,5 C 81 % 1019,4 hPa 0,0 l/m 0 min 0 min 0 W/m 12,9 km/h (3 Bft) 100,00 %
12.11.2020 18:20 11,5 C 10,6 C 9,5 C 81 % 1019,5 hPa 0,0 l/m 0 min 0 min 0 W/m 12,9 km/h (3 Bft) 100,00 %
12.11.2020 18:22 11,5 C 10,6 C 8,9 C 81 % 1019,5 hPa 0,0 l/m 0 min 0 min 0 W/m 6,4 km/h (2 Bft) 100,00 %
12.11.2020 18:24 11,5 C 10,6 C 8,9 C 81 % 1019,6 hPa 0,0 l/m 0 min 0 min 0 W/m 6,4 km/h (2 Bft) 100,00 %
12.11.2020 18:26 11,4 C 10,6 C 8,9 C 81 % 1019,6 hPa 0,0 l/m 0 min 0 min 0 W/m 6,4 km/h (2 Bft) 97,92 %
12.11.2020 18:28 11,4 C 10,6 C 8,9 C 81 % 1019,6 hPa 0,0 l/m 0 min 0 min 0 W/m 12,9 km/h (3 Bft) 100,00 %
12.11.2020 18:30 11,3 C 10,6 C 8,9 C 81 % 1019,6 hPa 0,0 l/m 0 min 0 min 0 W/m 3,2 km/h (1 Bft) 100,00 %
12.11.2020 18:32 11,3 C 10,6 C 8,9 C 82 % 1019,6 hPa 0,0 l/m 0 min 0 min 0 W/m 0,0 km/h (0 Bft) 100,00 %
12.11.2020 18:34 11,3 C 10,6 C 8,9 C 82 % 1019,6 hPa 0,0 l/m 0 min 0 min 0 W/m 12,9 km/h (3 Bft) 100,00 %
12.11.2020 18:36 11,3 C 10,6 C 8,9 C 82 % 1019,6 hPa 0,0 l/m 0 min 0 min 0 W/m 3,2 km/h (1 Bft) 97,92 %
12.11.2020 18:38 11,2 C 10,6 C 8,9 C 82 % 1019,5 hPa 0,0 l/m 0 min 0 min 0 W/m 0,0 km/h (0 Bft) 100,00 %
12.11.2020 18:40 11,2 C 10,6 C 8,9 C 82 % 1019,5 hPa 0,0 l/m 0 min 0 min 0 W/m 3,2 km/h (1 Bft) 95,74 %
12.11.2020 18:42 11,2 C 10,6 C 8,9 C 82 % 1019,5 hPa 0,0 l/m 0 min 0 min 0 W/m 12,9 km/h (3 Bft) 97,92 %
12.11.2020 18:44 11,2 C 10,6 C 8,9 C 82 % 1019,6 hPa 0,0 l/m 0 min 0 min 0 W/m 3,2 km/h (1 Bft) 97,92 %
12.11.2020 18:46 11,1 C 10,0 C 8,9 C 82 % 1019,6 hPa 0,0 l/m 0 min 0 min 0 W/m 0,0 km/h (0 Bft) 95,74 %
12.11.2020 18:48 11,1 C 10,0 C 8,9 C 82 % 1019,6 hPa 0,0 l/m 0 min 0 min 0 W/m 6,4 km/h (2 Bft) 95,74 %
12.11.2020 18:50 11,1 C 10,0 C 8,9 C 82 % 1019,5 hPa 0,0 l/m 0 min 0 min 0 W/m 12,9 km/h (3 Bft) 100,00 %
12.11.2020 18:52 11,1 C 10,0 C 8,4 C 82 % 1019,6 hPa 0,0 l/m 0 min 0 min 0 W/m 3,2 km/h (1 Bft) 95,74 %
12.11.2020 18:54 11,0 C 10,0 C 8,4 C 82 % 1019,6 hPa 0,0 l/m 0 min 0 min 0 W/m 6,4 km/h (2 Bft) 95,83 %
12.11.2020 18:56 11,0 C 10,0 C 8,4 C 82 % 1019,7 hPa 0,0 l/m 0 min 0 min 0 W/m 3,2 km/h (1 Bft) 97,87 %
12.11.2020 18:58 11,0 C 10,0 C 8,4 C 82 % 1019,7 hPa 0,0 l/m 0 min 0 min 0 W/m 6,4 km/h (2 Bft) 97,87 %
12.11.2020 19:00 11,0 C 10,0 C 8,4 C 82 % 1019,7 hPa 0,0 l/m 0 min 0 min 0 W/m 3,2 km/h (1 Bft) 97,87 %
12.11.2020 19:02 10,9 C 10,0 C 8,4 C 83 % 1019,7 hPa 0,0 l/m 0 min 0 min 0 W/m 6,4 km/h (2 Bft) 95,35 %
12.11.2020 19:04 10,9 C 10,0 C 8,4 C 83 % 1019,7 hPa 0,0 l/m 0 min 0 min 0 W/m 3,2 km/h (1 Bft) 97,96 %
12.11.2020 19:06 10,9 C 10,0 C 8,4 C 83 % 1019,8 hPa 0,0 l/m 0 min 0 min 0 W/m 12,9 km/h (3 Bft) 97,92 %
12.11.2020 19:08 10,8 C 10,0 C 8,4 C 83 % 1019,9 hPa 0,0 l/m 0 min 0 min 0 W/m 19,3 km/h (3 Bft) 95,74 %
12.11.2020 19:10 10,8 C 10,0 C 8,4 C 83 % 1019,9 hPa 0,0 l/m 0 min 0 min 0 W/m 3,2 km/h (1 Bft) 97,87 %
12.11.2020 19:12 10,8 C 10,0 C 8,4 C 83 % 1019,9 hPa 0,0 l/m 0 min 0 min 0 W/m 6,4 km/h (2 Bft) 97,87 %
12.11.2020 19:14 10,8 C 10,0 C 8,4 C 83 % 1019,8 hPa 0,0 l/m 0 min 0 min 0 W/m 16,1 km/h (3 Bft) 95,74 %
12.11.2020 19:16 10,7 C 10,0 C 8,4 C 83 % 1019,8 hPa 0,0 l/m 0 min 0 min 0 W/m 12,9 km/h (3 Bft) 97,83 %
12.11.2020 19:18 10,7 C 10,0 C 8,4 C 83 % 1019,9 hPa 0,0 l/m 0 min 0 min 0 W/m 19,3 km/h (3 Bft) 97,87 %
12.11.2020 19:20 10,6 C 10,0 C 8,4 C 84 % 1019,9 hPa 0,0 l/m 0 min 0 min 0 W/m 3,2 km/h (1 Bft) 97,62 %
12.11.2020 19:22 10,6 C 10,0 C 8,4 C 84 % 1019,9 hPa 0,0 l/m 0 min 0 min 0 W/m 12,9 km/h (3 Bft) 97,92 %
12.11.2020 19:24 10,6 C 10,0 C 8,4 C 84 % 1019,9 hPa 0,0 l/m 0 min 0 min 0 W/m 6,4 km/h (2 Bft) 97,92 %
12.11.2020 19:26 10,6 C 10,0 C 8,4 C 84 % 1019,9 hPa 0,0 l/m 0 min 0 min 0 W/m 6,4 km/h (2 Bft) 95,74 %
12.11.2020 19:28 10,6 C 10,0 C 8,4 C 84 % 1019,9 hPa 0,0 l/m 0 min 0 min 0 W/m 3,2 km/h (1 Bft) 100,00 %
12.11.2020 19:30 10,5 C 10,0 C 8,4 C 84 % 1019,8 hPa 0,0 l/m 0 min 0 min 0 W/m 12,9 km/h (3 Bft) 95,83 %
12.11.2020 19:32 10,5 C 9,4 C 8,4 C 84 % 1019,8 hPa 0,0 l/m 0 min 0 min 0 W/m 0,0 km/h (0 Bft) 100,00 %
12.11.2020 19:34 10,5 C 9,4 C 8,4 C 84 % 1019,9 hPa 0,0 l/m 0 min 0 min 0 W/m 3,2 km/h (1 Bft) 100,00 %
12.11.2020 19:36 10,5 C 9,4 C 8,4 C 84 % 1019,9 hPa 0,0 l/m 0 min 0 min 0 W/m 0,0 km/h (0 Bft) 100,00 %
12.11.2020 19:38 10,5 C 9,4 C 8,4 C 84 % 1019,9 hPa 0,0 l/m 0 min 0 min 0 W/m 3,2 km/h (1 Bft) 100,00 %
12.11.2020 19:40 10,5 C 9,4 C 7,8 C 84 % 1019,9 hPa 0,0 l/m 0 min 0 min 0 W/m 3,2 km/h (1 Bft) 100,00 %
12.11.2020 19:42 10,4 C 9,4 C 8,4 C 84 % 1019,9 hPa 0,0 l/m 0 min 0 min 0 W/m 3,2 km/h (1 Bft) 100,00 %
12.11.2020 19:44 10,4 C 9,4 C 8,4 C 84 % 1019,9 hPa 0,0 l/m 0 min 0 min 0 W/m 0,0 km/h (0 Bft) 100,00 %
12.11.2020 19:46 10,4 C 9,4 C 7,8 C 84 % 1020,0 hPa 0,0 l/m 0 min 0 min 0 W/m 0,0 km/h (0 Bft) 100,00 %
12.11.2020 19:48 10,4 C 9,4 C 7,8 C 84 % 1020,0 hPa 0,0 l/m 0 min 0 min 0 W/m 6,4 km/h (2 Bft) 100,00 %
12.11.2020 19:50 10,4 C 9,4 C 7,8 C 84 % 1020,1 hPa 0,0 l/m 0 min 0 min 0 W/m 0,0 km/h (0 Bft) 100,00 %
12.11.2020 19:52 10,4 C 9,4 C 7,8 C 84 % 1020,0 hPa 0,0 l/m 0 min 0 min 0 W/m 3,2 km/h (1 Bft) 100,00 %
12.11.2020 19:54 10,3 C 9,4 C 7,8 C 84 % 1020,0 hPa 0,0 l/m 0 min 0 min 0 W/m 0,0 km/h (0 Bft) 100,00 %
12.11.2020 19:56 10,3 C 9,4 C 7,8 C 85 % 1020,0 hPa 0,0 l/m 0 min 0 min 0 W/m 3,2 km/h (1 Bft) 97,87 %
12.11.2020 19:58 10,3 C 9,4 C 7,8 C 84 % 1020,0 hPa 0,0 l/m 0 min 0 min 0 W/m 3,2 km/h (1 Bft) 100,00 %
12.11.2020 20:00 10,2 C 9,4 C 7,8 C 85 % 1020,0 hPa 0,0 l/m 0 min 0 min 0 W/m 6,4 km/h (2 Bft) 100,00 %
12.11.2020 20:02 10,2 C 9,4 C 7,8 C 85 % 1020,0 hPa 0,0 l/m 0 min 0 min 0 W/m 12,9 km/h (3 Bft) 98,00 %
12.11.2020 20:04 10,1 C 9,4 C 7,8 C 85 % 1020,1 hPa 0,0 l/m 0 min 0 min 0 W/m 12,9 km/h (3 Bft) 97,92 %
12.11.2020 20:06 10,1 C 9,4 C 7,8 C 85 % 1020,0 hPa 0,0 l/m 0 min 0 min 0 W/m 3,2 km/h (1 Bft) 97,87 %
12.11.2020 20:08 10,1 C 9,4 C 7,8 C 85 % 1020,0 hPa 0,0 l/m 0 min 0 min 0 W/m 6,4 km/h (2 Bft) 100,00 %
12.11.2020 20:10 10,1 C 9,4 C 7,8 C 85 % 1019,9 hPa 0,0 l/m 0 min 0 min 0 W/m 6,4 km/h (2 Bft) 97,87 %
12.11.2020 20:12 10,1 C 9,4 C 7,8 C 85 % 1020,0 hPa 0,0 l/m 0 min 0 min 0 W/m 6,4 km/h (2 Bft) 97,83 %
12.11.2020 20:14 10,0 C 8,9 C 7,8 C 85 % 1020,0 hPa 0,0 l/m 0 min 0 min 0 W/m 0,0 km/h (0 Bft) 95,24 %
12.11.2020 20:16 10,0 C 8,9 C 7,8 C 85 % 1020,0 hPa 0,0 l/m 0 min 0 min 0 W/m 6,4 km/h (2 Bft) 95,83 %
12.11.2020 20:18 10,0 C 8,9 C 7,8 C 85 % 1020,1 hPa 0,0 l/m 0 min 0 min 0 W/m 6,4 km/h (2 Bft) 95,83 %
12.11.2020 20:20 10,0 C 9,4 C 7,8 C 85 % 1020,1 hPa 0,0 l/m 0 min 0 min 0 W/m 6,4 km/h (2 Bft) 93,75 %
12.11.2020 20:22 10,0 C 9,4 C 7,8 C 85 % 1020,1 hPa 0,0 l/m 0 min 0 min 0 W/m 3,2 km/h (1 Bft) 95,74 %
12.11.2020 20:24 9,9 C 9,4 C 7,8 C 85 % 1020,1 hPa 0,0 l/m 0 min 0 min 0 W/m 3,2 km/h (1 Bft) 95,83 %
12.11.2020 20:26 9,9 C 8,9 C 7,8 C 85 % 1020,1 hPa 0,0 l/m 0 min 0 min 0 W/m 0,0 km/h (0 Bft) 95,74 %
12.11.2020 20:28 9,9 C 9,4 C 7,8 C 85 % 1020,1 hPa 0,0 l/m 0 min 0 min 0 W/m 3,2 km/h (1 Bft) 93,62 %
12.11.2020 20:30 9,9 C 8,9 C 7,8 C 85 % 1020,1 hPa 0,0 l/m 0 min 0 min 0 W/m 3,2 km/h (1 Bft) 95,74 %
12.11.2020 20:32 9,9 C 8,9 C 7,8 C 85 % 1020,1 hPa 0,0 l/m 0 min 0 min 0 W/m 0,0 km/h (0 Bft) 95,74 %
12.11.2020 20:34 9,9 C 8,9 C 7,8 C 85 % 1020,2 hPa 0,0 l/m 0 min 0 min 0 W/m 0,0 km/h (0 Bft) 95,74 %
12.11.2020 20:36 9,9 C 8,9 C 7,8 C 85 % 1020,3 hPa 0,0 l/m 0 min 0 min 0 W/m 6,4 km/h (2 Bft) 93,48 %
12.11.2020 20:38 9,8 C 8,9 C 7,8 C 85 % 1020,3 hPa 0,0 l/m 0 min 0 min 0 W/m 3,2 km/h (1 Bft) 95,74 %
12.11.2020 20:40 9,8 C 8,9 C 7,8 C 85 % 1020,3 hPa 0,0 l/m 0 min 0 min 0 W/m 3,2 km/h (1 Bft) 95,74 %
12.11.2020 20:42 9,8 C 8,9 C 7,2 C 85 % 1020,2 hPa 0,0 l/m 0 min 0 min 0 W/m 0,0 km/h (0 Bft) 95,74 %
12.11.2020 20:44 9,8 C 8,3 C 7,2 C 85 % 1020,3 hPa 0,0 l/m 0 min 0 min 0 W/m 3,2 km/h (1 Bft) 95,74 %
12.11.2020 20:46 9,8 C 8,3 C 7,2 C 85 % 1020,3 hPa 0,0 l/m 0 min 0 min 0 W/m 0,0 km/h (0 Bft) 95,74 %
12.11.2020 20:48 9,7 C 8,3 C 7,2 C 85 % 1020,4 hPa 0,0 l/m 0 min 0 min 0 W/m 3,2 km/h (1 Bft) 95,65 %
12.11.2020 20:50 9,7 C 8,3 C 7,2 C 85 % 1020,3 hPa 0,0 l/m 0 min 0 min 0 W/m 3,2 km/h (1 Bft) 97,62 %
12.11.2020 20:52 9,6 C 8,3 C 7,2 C 85 % 1020,4 hPa 0,0 l/m 0 min 0 min 0 W/m 0,0 km/h (0 Bft) 94,55 %
12.11.2020 20:54 9,6 C 8,3 C 7,2 C 86 % 1020,4 hPa 0,0 l/m 0 min 0 min 0 W/m 0,0 km/h (0 Bft) 95,74 %
12.11.2020 20:56 9,6 C 8,3 C 7,2 C 86 % 1020,4 hPa 0,0 l/m 0 min 0 min 0 W/m 0,0 km/h (0 Bft) 95,74 %
12.11.2020 20:58 9,5 C 8,3 C 7,2 C 85 % 1020,4 hPa 0,0 l/m 0 min 0 min 0 W/m 0,0 km/h (0 Bft) 95,65 %
12.11.2020 21:00 9,5 C 8,3 C 7,2 C 86 % 1020,4 hPa 0,0 l/m 0 min 0 min 0 W/m 0,0 km/h (0 Bft) 95,74 %
12.11.2020 21:02 9,5 C 8,3 C 7,2 C 86 % 1020,4 hPa 0,0 l/m 0 min 0 min 0 W/m 3,2 km/h (1 Bft) 97,87 %
12.11.2020 21:04 9,4 C 8,3 C 7,2 C 86 % 1020,4 hPa 0,0 l/m 0 min 0 min 0 W/m 0,0 km/h (0 Bft) 97,73 %
12.11.2020 21:06 9,4 C 8,3 C 7,2 C 86 % 1020,4 hPa 0,0 l/m 0 min 0 min 0 W/m 6,4 km/h (2 Bft) 97,92 %
12.11.2020 21:08 9,4 C 8,3 C 7,2 C 86 % 1020,4 hPa 0,0 l/m 0 min 0 min 0 W/m 3,2 km/h (1 Bft) 95,65 %
12.11.2020 21:10 9,4 C 8,3 C 7,2 C 86 % 1020,3 hPa 0,0 l/m 0 min 0 min 0 W/m 0,0 km/h (0 Bft) 97,92 %
12.11.2020 21:12 9,3 C 8,3 C 6,7 C 86 % 1020,4 hPa 0,0 l/m 0 min 0 min 0 W/m 0,0 km/h (0 Bft) 97,92 %
12.11.2020 21:14 9,3 C 8,3 C 6,7 C 86 % 1020,4 hPa 0,0 l/m 0 min 0 min 0 W/m 0,0 km/h (0 Bft) 97,87 %
12.11.2020 21:16 9,3 C 8,3 C 6,7 C 86 % 1020,4 hPa 0,0 l/m 0 min 0 min 0 W/m 0,0 km/h (0 Bft) 93,62 %
12.11.2020 21:18 9,2 C 7,8 C 6,7 C 86 % 1020,3 hPa 0,0 l/m 0 min 0 min 0 W/m 0,0 km/h (0 Bft) 97,87 %
12.11.2020 21:20 9,2 C 7,8 C 6,7 C 86 % 1020,4 hPa 0,0 l/m 0 min 0 min 0 W/m 0,0 km/h (0 Bft) 100,00 %
12.11.2020 21:22 9,1 C 7,8 C 6,7 C 87 % 1020,4 hPa 0,0 l/m 0 min 0 min 0 W/m 0,0 km/h (0 Bft) 100,00 %
12.11.2020 21:24 9,1 C 7,8 C 6,7 C 87 % 1020,4 hPa 0,0 l/m 0 min 0 min 0 W/m 3,2 km/h (1 Bft) 100,00 %
12.11.2020 21:26 9,1 C 7,8 C 6,7 C 87 % 1020,4 hPa 0,0 l/m 0 min 0 min 0 W/m 0,0 km/h (0 Bft) 100,00 %
12.11.2020 21:28 9,0 C 7,8 C 6,7 C 87 % 1020,4 hPa 0,0 l/m 0 min 0 min 0 W/m 0,0 km/h (0 Bft) 97,87 %
12.11.2020 21:30 9,0 C 7,8 C 6,7 C 87 % 1020,4 hPa 0,0 l/m 0 min 0 min 0 W/m 3,2 km/h (1 Bft) 100,00 %
12.11.2020 21:32 9,0 C 7,8 C 6,7 C 87 % 1020,4 hPa 0,0 l/m 0 min 0 min 0 W/m 3,2 km/h (1 Bft) 97,83 %
12.11.2020 21:34 9,0 C 7,8 C 6,7 C 87 % 1020,4 hPa 0,0 l/m 0 min 0 min 0 W/m 3,2 km/h (1 Bft) 97,87 %
12.11.2020 21:36 8,9 C 7,8 C 6,7 C 87 % 1020,4 hPa 0,0 l/m 0 min 0 min 0 W/m 0,0 km/h (0 Bft) 93,62 %
12.11.2020 21:38 8,9 C 7,8 C 6,7 C 87 % 1020,4 hPa 0,0 l/m 0 min 0 min 0 W/m 0,0 km/h (0 Bft) 97,87 %
12.11.2020 21:40 8,9 C 7,8 C 6,7 C 88 % 1020,4 hPa 0,0 l/m 0 min 0 min 0 W/m 0,0 km/h (0 Bft) 95,74 %
12.11.2020 21:42 8,8 C 7,8 C 6,7 C 88 % 1020,4 hPa 0,0 l/m 0 min 0 min 0 W/m 0,0 km/h (0 Bft) 97,87 %
12.11.2020 21:44 8,8 C 7,8 C 6,7 C 88 % 1020,4 hPa 0,0 l/m 0 min 0 min 0 W/m 3,2 km/h (1 Bft) 97,83 %
12.11.2020 21:46 8,8 C 7,8 C 6,1 C 88 % 1020,4 hPa 0,0 l/m 0 min 0 min 0 W/m 0,0 km/h (0 Bft) 95,74 %
12.11.2020 21:48 8,8 C 7,8 C 6,7 C 88 % 1020,4 hPa 0,0 l/m 0 min 0 min 0 W/m 3,2 km/h (1 Bft) 95,74 %
12.11.2020 21:50 8,7 C 7,8 C 6,7 C 88 % 1020,5 hPa 0,0 l/m 0 min 0 min 0 W/m 0,0 km/h (0 Bft) 97,87 %
12.11.2020 21:52 8,6 C 7,8 C 6,1 C 88 % 1020,5 hPa 0,0 l/m 0 min 0 min 0 W/m 0,0 km/h (0 Bft) 97,87 %
12.11.2020 21:54 8,6 C 7,8 C 6,1 C 88 % 1020,5 hPa 0,0 l/m 0 min 0 min 0 W/m 3,2 km/h (1 Bft) 97,87 %
12.11.2020 21:56 8,6 C 7,8 C 6,1 C 88 % 1020,5 hPa 0,0 l/m 0 min 0 min 0 W/m 6,4 km/h (2 Bft) 97,83 %
12.11.2020 21:58 8,6 C 7,2 C 6,1 C 88 % 1020,4 hPa 0,0 l/m 0 min 0 min 0 W/m 3,2 km/h (1 Bft) 97,67 %
12.11.2020 22:00 8,5 C 7,2 C 6,1 C 88 % 1020,5 hPa 0,0 l/m 0 min 0 min 0 W/m 6,4 km/h (2 Bft) 93,75 %
12.11.2020 22:02 8,5 C 7,2 C 6,1 C 88 % 1020,4 hPa 0,0 l/m 0 min 0 min 0 W/m 3,2 km/h (1 Bft) 95,74 %
12.11.2020 22:04 8,5 C 7,8 C 6,1 C 88 % 1020,5 hPa 0,0 l/m 0 min 0 min 0 W/m 0,0 km/h (0 Bft) 97,37 %
12.11.2020 22:06 8,5 C 7,2 C 6,1 C 88 % 1020,4 hPa 0,0 l/m 0 min 0 min 0 W/m 0,0 km/h (0 Bft) 97,92 %
12.11.2020 22:08 8,5 C 7,2 C 6,1 C 88 % 1020,4 hPa 0,0 l/m 0 min 0 min 0 W/m 0,0 km/h (0 Bft) 97,87 %
12.11.2020 22:10 8,4 C 7,2 C 6,1 C 89 % 1020,4 hPa 0,0 l/m 0 min 0 min 0 W/m 0,0 km/h (0 Bft) 97,87 %
12.11.2020 22:12 8,4 C 7,2 C 6,1 C 89 % 1020,5 hPa 0,0 l/m 0 min 0 min 0 W/m 0,0 km/h (0 Bft) 97,87 %
12.11.2020 22:14 8,4 C 7,2 C 6,1 C 89 % 1020,5 hPa 0,0 l/m 0 min 0 min 0 W/m 3,2 km/h (1 Bft) 97,87 %
12.11.2020 22:16 8,4 C 7,2 C 6,1 C 89 % 1020,5 hPa 0,0 l/m 0 min 0 min 0 W/m 3,2 km/h (1 Bft) 95,83 %
12.11.2020 22:18 8,4 C 7,2 C 6,1 C 89 % 1020,5 hPa 0,0 l/m 0 min 0 min 0 W/m 6,4 km/h (2 Bft) 97,87 %
12.11.2020 22:20 8,3 C 7,2 C 6,1 C 89 % 1020,4 hPa 0,0 l/m 0 min 0 min 0 W/m 3,2 km/h (1 Bft) 97,83 %
12.11.2020 22:22 8,3 C 7,2 C 6,1 C 89 % 1020,4 hPa 0,0 l/m 0 min 0 min 0 W/m 6,4 km/h (2 Bft) 100,00 %
12.11.2020 22:24 8,3 C 7,2 C 6,1 C 89 % 1020,4 hPa 0,0 l/m 0 min 0 min 0 W/m 6,4 km/h (2 Bft) 95,83 %
12.11.2020 22:26 8,3 C 7,2 C 6,1 C 89 % 1020,4 hPa 0,0 l/m 0 min 0 min 0 W/m 0,0 km/h (0 Bft) 100,00 %
12.11.2020 22:28 8,3 C 7,2 C 6,1 C 89 % 1020,4 hPa 0,0 l/m 0 min 0 min 0 W/m 3,2 km/h (1 Bft) 97,22 %
12.11.2020 22:30 8,2 C 7,2 C 6,1 C 89 % 1020,4 hPa 0,0 l/m 0 min 0 min 0 W/m 0,0 km/h (0 Bft) 98,33 %
12.11.2020 22:32 8,2 C 7,2 C 6,1 C 89 % 1020,4 hPa 0,0 l/m 0 min 0 min 0 W/m 6,4 km/h (2 Bft) 100,00 %
12.11.2020 22:34 8,1 C 7,2 C 6,1 C 89 % 1020,4 hPa 0,0 l/m 0 min 0 min 0 W/m 0,0 km/h (0 Bft) 100,00 %
12.11.2020 22:36 8,1 C 7,2 C 6,1 C 89 % 1020,3 hPa 0,0 l/m 0 min 0 min 0 W/m 3,2 km/h (1 Bft) 100,00 %
12.11.2020 22:38 8,1 C 7,2 C 6,1 C 89 % 1020,3 hPa 0,0 l/m 0 min 0 min 0 W/m 0,0 km/h (0 Bft) 100,00 %
12.11.2020 22:40 8,1 C 7,2 C 6,1 C 90 % 1020,3 hPa 0,0 l/m 0 min 0 min 0 W/m 0,0 km/h (0 Bft) 97,87 %
12.11.2020 22:42 8,1 C 7,2 C 6,1 C 90 % 1020,2 hPa 0,0 l/m 0 min 0 min 0 W/m 0,0 km/h (0 Bft) 95,65 %
12.11.2020 22:44 8,0 C 7,2 C 6,1 C 90 % 1020,3 hPa 0,0 l/m 0 min 0 min 0 W/m 0,0 km/h (0 Bft) 100,00 %
12.11.2020 22:46 8,0 C 7,2 C 6,1 C 90 % 1020,3 hPa 0,0 l/m 0 min 0 min 0 W/m 0,0 km/h (0 Bft) 100,00 %
12.11.2020 22:48 8,0 C 7,2 C 6,1 C 90 % 1020,2 hPa 0,0 l/m 0 min 0 min 0 W/m 0,0 km/h (0 Bft) 100,00 %
12.11.2020 22:50 8,0 C 7,2 C 6,1 C 90 % 1020,3 hPa 0,0 l/m 0 min 0 min 0 W/m 0,0 km/h (0 Bft) 100,00 %
12.11.2020 22:52 8,0 C 7,2 C 6,1 C 90 % 1020,3 hPa 0,0 l/m 0 min 0 min 0 W/m 0,0 km/h (0 Bft) 97,87 %
12.11.2020 22:54 7,9 C 6,7 C 5,6 C 90 % 1020,2 hPa 0,0 l/m 0 min 0 min 0 W/m 0,0 km/h (0 Bft) 97,78 %
12.11.2020 22:56 7,9 C 6,7 C 5,6 C 90 % 1020,2 hPa 0,0 l/m 0 min 0 min 0 W/m 0,0 km/h (0 Bft) 97,87 %
12.11.2020 22:58 7,9 C 6,7 C 5,6 C 90 % 1020,2 hPa 0,0 l/m 0 min 0 min 0 W/m 0,0 km/h (0 Bft) 95,74 %
12.11.2020 23:00 7,9 C 6,7 C 5,6 C 90 % 1020,2 hPa 0,0 l/m 0 min 0 min 0 W/m 0,0 km/h (0 Bft) 97,87 %
12.11.2020 23:02 7,9 C 6,7 C 5,6 C 90 % 1020,1 hPa 0,0 l/m 0 min 0 min 0 W/m 0,0 km/h (0 Bft) 97,92 %
12.11.2020 23:04 7,8 C 6,7 C 5,6 C 90 % 1020,2 hPa 0,0 l/m 0 min 0 min 0 W/m 0,0 km/h (0 Bft) 97,87 %
12.11.2020 23:06 7,8 C 6,7 C 5,6 C 90 % 1020,1 hPa 0,0 l/m 0 min 0 min 0 W/m 3,2 km/h (1 Bft) 95,74 %
12.11.2020 23:08 7,8 C 6,7 C 5,6 C 90 % 1020,2 hPa 0,0 l/m 0 min 0 min 0 W/m 0,0 km/h (0 Bft) 97,83 %
12.11.2020 23:10 7,7 C 6,7 C 5,6 C 90 % 1020,1 hPa 0,0 l/m 0 min 0 min 0 W/m 0,0 km/h (0 Bft) 97,87 %
12.11.2020 23:12 7,7 C 6,7 C 5,6 C 90 % 1020,1 hPa 0,0 l/m 0 min 0 min 0 W/m 3,2 km/h (1 Bft) 95,74 %
12.11.2020 23:14 7,7 C 6,7 C 5,6 C 90 % 1020,1 hPa 0,0 l/m 0 min 0 min 0 W/m 0,0 km/h (0 Bft) 97,62 %
12.11.2020 23:16 7,6 C 6,7 C 5,6 C 90 % 1020,1 hPa 0,0 l/m 0 min 0 min 0 W/m 0,0 km/h (0 Bft) 97,92 %
12.11.2020 23:18 7,6 C 6,7 C 5,6 C 90 % 1020,1 hPa 0,0 l/m 0 min 0 min 0 W/m 0,0 km/h (0 Bft) 97,87 %
12.11.2020 23:20 7,6 C 6,7 C 5,6 C 90 % 1020,1 hPa 0,0 l/m 0 min 0 min 0 W/m 0,0 km/h (0 Bft) 95,83 %
12.11.2020 23:22 7,6 C 6,7 C 5,6 C 90 % 1020,1 hPa 0,0 l/m 0 min 0 min 0 W/m 0,0 km/h (0 Bft) 97,87 %
12.11.2020 23:24 7,6 C 6,7 C 5,6 C 90 % 1020,1 hPa 0,0 l/m 0 min 0 min 0 W/m 0,0 km/h (0 Bft) 97,92 %
12.11.2020 23:26 7,5 C 6,7 C 5,6 C 90 % 1020,1 hPa 0,0 l/m 0 min 0 min 0 W/m 0,0 km/h (0 Bft) 97,92 %
12.11.2020 23:28 7,5 C 6,7 C 5,6 C 91 % 1020,1 hPa 0,0 l/m 0 min 0 min 0 W/m 0,0 km/h (0 Bft) 97,83 %
12.11.2020 23:30 7,5 C 6,7 C 5,6 C 91 % 1020,1 hPa 0,0 l/m 0 min 0 min 0 W/m 0,0 km/h (0 Bft) 97,87 %
12.11.2020 23:32 7,5 C 6,7 C 5,6 C 91 % 1020,1 hPa 0,0 l/m 0 min 0 min 0 W/m 0,0 km/h (0 Bft) 97,96 %
12.11.2020 23:34 7,5 C 6,7 C 5,6 C 90 % 1020,1 hPa 0,0 l/m 0 min 0 min 0 W/m 0,0 km/h (0 Bft) 97,92 %
12.11.2020 23:36 7,4 C 6,7 C 5,6 C 90 % 1020,1 hPa 0,0 l/m 0 min 0 min 0 W/m 0,0 km/h (0 Bft) 97,87 %
12.11.2020 23:38 7,4 C 6,7 C 5,6 C 90 % 1020,2 hPa 0,0 l/m 0 min 0 min 0 W/m 3,2 km/h (1 Bft) 100,00 %
12.11.2020 23:40 7,4 C 6,7 C 5,6 C 90 % 1020,2 hPa 0,0 l/m 0 min 0 min 0 W/m 3,2 km/h (1 Bft) 97,92 %
12.11.2020 23:42 7,4 C 6,7 C 5,6 C 91 % 1020,2 hPa 0,0 l/m 0 min 0 min 0 W/m 3,2 km/h (1 Bft) 100,00 %
12.11.2020 23:44 7,4 C 6,7 C 5,6 C 91 % 1020,2 hPa 0,0 l/m 0 min 0 min 0 W/m 0,0 km/h (0 Bft) 100,00 %
12.11.2020 23:46 7,3 C 6,1 C 5,6 C 91 % 1020,2 hPa 0,0 l/m 0 min 0 min 0 W/m 0,0 km/h (0 Bft) 97,87 %
12.11.2020 23:48 7,3 C 6,1 C 5,6 C 91 % 1020,2 hPa 0,0 l/m 0 min 0 min 0 W/m 0,0 km/h (0 Bft) 100,00 %
12.11.2020 23:50 7,3 C 6,1 C 5,0 C 91 % 1020,2 hPa 0,0 l/m 0 min 0 min 0 W/m 3,2 km/h (1 Bft) 95,74 %
12.11.2020 23:52 7,3 C 6,1 C 5,0 C 91 % 1020,3 hPa 0,0 l/m 0 min 0 min 0 W/m 0,0 km/h (0 Bft) 100,00 %
12.11.2020 23:54 7,3 C 6,1 C 5,0 C 91 % 1020,2 hPa 0,0 l/m 0 min 0 min 0 W/m 0,0 km/h (0 Bft) 100,00 %
12.11.2020 23:56 7,2 C 6,1 C 5,0 C 91 % 1020,3 hPa 0,0 l/m 0 min 0 min 0 W/m 3,2 km/h (1 Bft) 100,00 %
12.11.2020 23:58 7,2 C 6,1 C 5,0 C 91 % 1020,3 hPa 0,0 l/m 0 min 0 min 0 W/m 0,0 km/h (0 Bft) 100,00 %
_ Min-Zeit 23:56 23:46 23:50 15:24 06:36 - - - - 09:30 09:28
Minimum _ 7,2 C 6,1 C 5,0 C 78 % 1015,6 hPa - - - - 0,0 km/h (0 Bft) 47,62 %
_ Max-Zeit 11:24 13:42 13:42 00:00 21:50 07:36 12:07 07:30 13:38 11:02 00:32
Maximum _ 13,4 C 16,1 C 17,2 C 97 % 1020,5 hPa 0,2 l/m 3 min 2 min 447 W/m 48,3 km/h
S-SO (6 Bft)
100,00 %
Durchschnitt _ 10,3 C 9,7 C 9,0 C 89 % 1018,1 hPa #0,4 l/m #48 min. #24 min. 83 W/m 13,5 km/h (3 Bft) 97,39 %
© 2020 W. Hausmann